Time,TemperatureF,DewpointF,PressureIn,WindDirection,WindDirectionDegrees,WindSpeedMPH,WindSpeedGustMPH,Humidity,HourlyPrecipIn,Conditions,Clouds,dailyrainin,SoftwareType,DateUTC
2013-06-25 00:00:00,55.4,45.8,29.76,SSW,199,3.1,3.6,70,0.04,,---,0.00,VWS V14.01,2013-06-25 06:00:00,
2013-06-25 00:01:00,55.4,45.8,29.76,SSW,195,4.0,4.0,70,0.04,,---,0.00,VWS V14.01,2013-06-25 06:01:00,
2013-06-25 00:05:00,55.4,46.5,29.79,SSW,203,3.6,4.9,72,0.04,,---,0.00,VWS V14.01,2013-06-25 06:05:00,
2013-06-25 00:06:00,55.2,46.7,29.79,SSW,201,5.8,5.8,73,0.04,,---,0.00,VWS V14.01,2013-06-25 06:06:00,
2013-06-25 00:10:00,55.0,46.9,29.79,South,189,5.8,6.3,74,0.04,,---,0.00,VWS V14.01,2013-06-25 06:10:00,
2013-06-25 00:11:00,55.0,46.9,29.79,SSW,201,5.4,6.3,74,0.04,,---,0.00,VWS V14.01,2013-06-25 06:11:00,
2013-06-25 00:15:00,54.9,47.5,29.79,SSW,194,5.8,5.8,76,0.04,,---,0.00,VWS V14.01,2013-06-25 06:15:00,
2013-06-25 00:16:00,54.9,47.5,29.79,SSW,199,4.9,5.8,76,0.04,,---,0.00,VWS V14.01,2013-06-25 06:16:00,
2013-06-25 00:17:00,54.9,47.5,29.79,SSW,199,4.9,5.8,76,0.04,,---,0.00,VWS V14.01,2013-06-25 06:17:00,
2013-06-25 00:20:00,54.9,48.1,29.79,South,183,4.0,5.8,78,0.04,,---,0.00,VWS V14.01,2013-06-25 06:20:00,
2013-06-25 00:21:00,54.9,48.1,29.79,SSW,199,4.0,5.8,78,0.04,,---,0.00,VWS V14.01,2013-06-25 06:21:00,
2013-06-25 00:22:00,54.7,48.0,29.79,South,188,2.2,5.8,78,0.04,,---,0.00,VWS V14.01,2013-06-25 06:22:00,
2013-06-25 00:25:00,54.7,48.3,29.79,SSW,198,2.7,5.8,79,0.04,,---,0.00,VWS V14.01,2013-06-25 06:25:00,
2013-06-25 00:26:00,54.7,48.3,29.79,SSW,198,2.7,5.8,79,0.04,,---,0.00,VWS V14.01,2013-06-25 06:26:00,
2013-06-25 00:27:00,54.7,48.3,29.79,SSW,197,3.6,5.8,79,0.04,,---,0.00,VWS V14.01,2013-06-25 06:27:00,
2013-06-25 00:31:00,54.7,48.6,29.79,SSW,202,3.6,4.9,80,0.04,,---,0.00,VWS V14.01,2013-06-25 06:31:00,
2013-06-25 00:32:00,54.7,48.6,29.79,SSW,202,3.6,4.9,80,0.04,,---,0.00,VWS V14.01,2013-06-25 06:32:00,
2013-06-25 00:36:00,54.9,48.8,29.79,SSW,204,3.1,4.9,80,0.04,,---,0.00,VWS V14.01,2013-06-25 06:36:00,
2013-06-25 00:37:00,54.9,49.2,29.79,SSW,209,2.7,4.9,81,0.04,,---,0.00,VWS V14.01,2013-06-25 06:37:00,
2013-06-25 00:38:00,54.7,49.0,29.79,SSW,209,4.0,4.9,81,0.04,,---,0.00,VWS V14.01,2013-06-25 06:38:00,
2013-06-25 00:41:00,54.7,49.0,29.79,SSW,204,4.0,4.9,81,0.04,,---,0.00,VWS V14.01,2013-06-25 06:41:00,
2013-06-25 00:42:00,54.7,48.6,29.79,SSW,209,4.0,4.9,80,0.04,,---,0.00,VWS V14.01,2013-06-25 06:42:00,
2013-06-25 00:44:00,54.9,48.8,29.79,SSW,212,4.0,4.9,80,0.04,,---,0.00,VWS V14.01,2013-06-25 06:44:00,
2013-06-25 00:46:00,54.7,48.3,29.79,SW,217,5.4,5.4,79,0.04,,---,0.00,VWS V14.01,2013-06-25 06:46:00,
2013-06-25 00:47:00,54.7,48.0,29.79,SW,217,4.0,5.4,78,0.04,,---,0.00,VWS V14.01,2013-06-25 06:47:00,
2013-06-25 00:49:00,54.7,46.9,29.79,SW,217,4.0,5.4,75,0.04,,---,0.00,VWS V14.01,2013-06-25 06:49:00,
2013-06-25 00:51:00,54.7,46.6,29.79,SSW,212,2.7,5.4,74,0.04,,---,0.00,VWS V14.01,2013-06-25 06:51:00,
2013-06-25 00:52:00,54.7,46.6,29.79,SSW,212,3.6,5.4,74,0.04,,---,0.00,VWS V14.01,2013-06-25 06:52:00,
2013-06-25 00:53:00,54.7,46.2,29.79,SSW,196,3.1,5.4,73,0.04,,---,0.00,VWS V14.01,2013-06-25 06:53:00,
2013-06-25 00:54:00,54.7,46.2,29.79,SSW,199,3.6,5.4,73,0.04,,---,0.00,VWS V14.01,2013-06-25 06:54:00,
2013-06-25 00:57:00,54.7,45.8,29.79,SSW,207,3.6,5.4,72,0.04,,---,0.00,VWS V14.01,2013-06-25 06:57:00,
2013-06-25 00:58:00,54.7,45.8,29.79,SSW,204,3.6,5.4,72,0.04,,---,0.00,VWS V14.01,2013-06-25 06:58:00,
2013-06-25 00:59:00,54.7,45.5,29.79,SSW,208,4.0,5.4,71,0.04,,---,0.00,VWS V14.01,2013-06-25 06:59:00,
2013-06-25 01:02:00,54.5,44.9,29.79,SSW,210,4.9,5.4,70,0.00,,---,0.00,VWS V14.01,2013-06-25 07:02:00,
2013-06-25 01:03:00,54.5,44.2,29.79,SSW,204,3.6,5.4,68,0.00,,---,0.00,VWS V14.01,2013-06-25 07:03:00,
2013-06-25 01:04:00,54.5,44.2,29.79,SSW,203,4.0,5.4,68,0.00,,---,0.00,VWS V14.01,2013-06-25 07:04:00,
2013-06-25 01:07:00,54.3,42.0,29.79,SSW,194,4.0,5.4,63,0.00,,---,0.00,VWS V14.01,2013-06-25 07:07:00,
2013-06-25 01:08:00,54.3,42.0,29.79,SSW,206,3.6,5.4,63,0.00,,---,0.00,VWS V14.01,2013-06-25 07:08:00,
2013-06-25 01:09:00,54.3,41.6,29.79,SSW,200,4.0,5.4,62,0.00,,---,0.00,VWS V14.01,2013-06-25 07:09:00,
2013-06-25 01:13:00,54.3,41.6,29.79,SSW,207,5.4,5.4,62,0.00,,---,0.00,VWS V14.01,2013-06-25 07:13:00,
2013-06-25 01:15:00,54.5,41.3,29.79,SSW,211,2.7,5.4,61,0.00,,---,0.00,VWS V14.01,2013-06-25 07:15:00,
2013-06-25 01:18:00,54.3,40.8,29.76,SSW,207,3.1,4.9,60,0.00,,---,0.00,VWS V14.01,2013-06-25 07:18:00,
2013-06-25 01:20:00,54.3,39.9,29.76,SSW,204,2.7,4.9,58,0.00,,---,0.00,VWS V14.01,2013-06-25 07:20:00,
2013-06-25 01:23:00,54.3,39.9,29.76,SSW,204,0.0,4.9,58,0.00,,---,0.00,VWS V14.01,2013-06-25 07:23:00,
2013-06-25 01:25:00,54.1,39.3,29.76,SSW,204,0.0,4.9,57,0.00,,---,0.00,VWS V14.01,2013-06-25 07:25:00,
2013-06-25 01:28:00,54.1,39.3,29.76,SSW,204,2.2,4.9,57,0.00,,---,0.00,VWS V14.01,2013-06-25 07:28:00,
2013-06-25 01:29:00,54.1,39.7,29.76,SSW,204,2.2,4.9,58,0.00,,---,0.00,VWS V14.01,2013-06-25 07:29:00,
2013-06-25 01:30:00,54.0,39.5,29.76,SSW,204,0.0,0.0,58,0.00,,---,0.00,VWS V14.01,2013-06-25 07:30:00,
2013-06-25 01:34:00,53.8,39.8,29.79,SSW,198,2.2,3.1,59,0.00,,---,0.00,VWS V14.01,2013-06-25 07:34:00,
2013-06-25 01:35:00,53.8,39.8,29.79,SSW,198,2.7,3.1,59,0.00,,---,0.00,VWS V14.01,2013-06-25 07:35:00,
2013-06-25 01:39:00,54.0,40.4,29.79,SSW,198,2.2,3.1,60,0.00,,---,0.00,VWS V14.01,2013-06-25 07:39:00,
2013-06-25 01:40:00,53.8,40.2,29.79,SSW,198,0.0,3.1,60,0.00,,---,0.00,VWS V14.01,2013-06-25 07:40:00,
2013-06-25 01:44:00,54.0,39.5,29.79,SSW,200,2.2,3.6,58,0.00,,---,0.00,VWS V14.01,2013-06-25 07:44:00,
2013-06-25 01:45:00,54.0,39.5,29.79,SSW,199,3.6,3.6,58,0.00,,---,0.00,VWS V14.01,2013-06-25 07:45:00,
2013-06-25 01:46:00,54.0,39.1,29.79,SSW,199,2.2,3.6,57,0.00,,---,0.00,VWS V14.01,2013-06-25 07:46:00,
2013-06-25 01:49:00,54.0,39.1,29.79,SSW,199,0.0,3.6,57,0.00,,---,0.00,VWS V14.01,2013-06-25 07:49:00,
2013-06-25 01:50:00,54.0,39.1,29.79,SSW,199,2.7,3.6,57,0.00,,---,0.00,VWS V14.01,2013-06-25 07:50:00,
2013-06-25 01:51:00,54.0,39.1,29.79,SSW,199,0.0,3.6,57,0.00,,---,0.00,VWS V14.01,2013-06-25 07:51:00,
2013-06-25 01:54:00,54.1,39.3,29.79,SSW,199,2.2,3.6,57,0.00,,---,0.00,VWS V14.01,2013-06-25 07:54:00,
2013-06-25 01:55:00,54.1,39.3,29.79,SSW,199,2.2,3.6,57,0.00,,---,0.00,VWS V14.01,2013-06-25 07:55:00,
2013-06-25 01:56:00,54.0,39.1,29.79,SSW,199,0.0,3.6,57,0.00,,---,0.00,VWS V14.01,2013-06-25 07:56:00,
2013-06-25 01:59:00,53.6,39.6,29.79,SSW,199,2.2,3.6,59,0.00,,---,0.00,VWS V14.01,2013-06-25 07:59:00,
2013-06-25 02:00:00,53.6,40.1,29.79,SSW,199,0.0,3.6,60,0.00,,---,0.00,VWS V14.01,2013-06-25 08:00:00,
2013-06-25 02:01:00,53.4,40.3,29.79,SSW,199,0.0,0.0,61,0.00,,---,0.00,VWS V14.01,2013-06-25 08:01:00,
2013-06-25 02:04:00,53.1,40.4,29.79,SSW,199,2.2,2.2,62,0.00,,---,0.00,VWS V14.01,2013-06-25 08:04:00,
2013-06-25 02:05:00,53.1,40.8,29.79,SSW,199,0.0,2.2,63,0.00,,---,0.00,VWS V14.01,2013-06-25 08:05:00,
2013-06-25 02:06:00,53.1,40.8,29.79,SSW,199,0.0,2.2,63,0.00,,---,0.00,VWS V14.01,2013-06-25 08:06:00,
2013-06-25 02:09:00,52.7,42.1,29.79,SSW,199,0.0,2.2,67,0.00,,---,0.00,VWS V14.01,2013-06-25 08:09:00,
2013-06-25 02:10:00,52.7,42.1,29.79,SSW,199,0.0,2.2,67,0.00,,---,0.00,VWS V14.01,2013-06-25 08:10:00,
2013-06-25 02:11:00,52.5,41.9,29.79,SSW,199,0.0,2.2,67,0.00,,---,0.00,VWS V14.01,2013-06-25 08:11:00,
2013-06-25 02:12:00,52.5,42.3,29.79,SSW,199,0.0,2.2,68,0.00,,---,0.00,VWS V14.01,2013-06-25 08:12:00,
2013-06-25 02:15:00,52.3,42.5,29.79,SSW,199,0.0,2.2,69,0.00,,---,0.00,VWS V14.01,2013-06-25 08:15:00,
2013-06-25 02:16:00,52.2,42.3,29.79,SSW,199,0.0,0.0,69,0.00,,---,0.00,VWS V14.01,2013-06-25 08:16:00,
2013-06-25 02:17:00,52.2,42.7,29.79,SSW,199,0.0,0.0,70,0.00,,---,0.00,VWS V14.01,2013-06-25 08:17:00,
2013-06-25 02:20:00,52.0,43.2,29.76,SSW,199,0.0,0.0,72,0.00,,---,0.00,VWS V14.01,2013-06-25 08:20:00,
2013-06-25 02:21:00,52.0,43.2,29.76,SSW,199,0.0,0.0,72,0.00,,---,0.00,VWS V14.01,2013-06-25 08:21:00,
2013-06-25 02:22:00,52.0,43.2,29.76,SSW,199,0.0,0.0,72,0.00,,---,0.00,VWS V14.01,2013-06-25 08:22:00,
2013-06-25 02:25:00,51.8,43.8,29.76,SSW,206,2.7,2.7,74,0.00,,---,0.00,VWS V14.01,2013-06-25 08:25:00,
2013-06-25 02:26:00,51.8,43.8,29.76,SSW,206,0.0,2.7,74,0.00,,---,0.00,VWS V14.01,2013-06-25 08:26:00,
2013-06-25 02:27:00,51.8,44.5,29.76,SSW,206,0.0,2.7,76,0.00,,---,0.00,VWS V14.01,2013-06-25 08:27:00,
2013-06-25 02:28:00,51.8,44.5,29.76,SSW,206,0.0,2.7,76,0.00,,---,0.00,VWS V14.01,2013-06-25 08:28:00,
2013-06-25 02:30:00,51.8,44.8,29.76,SSW,206,0.0,0.0,77,0.00,,---,0.00,VWS V14.01,2013-06-25 08:30:00,
2013-06-25 02:31:00,51.8,44.8,29.76,SSW,206,0.0,0.0,77,0.00,,---,0.00,VWS V14.01,2013-06-25 08:31:00,
2013-06-25 02:32:00,51.8,45.2,29.76,SSW,206,0.0,0.0,78,0.00,,---,0.00,VWS V14.01,2013-06-25 08:32:00,
2013-06-25 02:33:00,51.8,45.2,29.79,SSW,206,0.0,0.0,78,0.00,,---,0.00,VWS V14.01,2013-06-25 08:33:00,
2013-06-25 02:36:00,51.6,45.3,29.79,SSW,206,0.0,0.0,79,0.00,,---,0.00,VWS V14.01,2013-06-25 08:36:00,
2013-06-25 02:37:00,51.6,45.7,29.79,SSW,206,0.0,2.2,80,0.00,,---,0.00,VWS V14.01,2013-06-25 08:37:00,
2013-06-25 02:39:00,51.6,45.7,29.79,SSW,206,0.0,2.2,80,0.00,,---,0.00,VWS V14.01,2013-06-25 08:39:00,
2013-06-25 02:41:00,51.6,46.0,29.79,SSW,206,0.0,2.2,81,0.00,,---,0.00,VWS V14.01,2013-06-25 08:41:00,
2013-06-25 02:42:00,51.6,46.0,29.79,SSW,206,0.0,2.2,81,0.00,,---,0.00,VWS V14.01,2013-06-25 08:42:00,
2013-06-25 02:43:00,51.4,45.8,29.79,SSW,206,0.0,2.2,81,0.00,,---,0.00,VWS V14.01,2013-06-25 08:43:00,
2013-06-25 02:44:00,51.4,45.8,29.79,SSW,206,0.0,2.2,81,0.00,,---,0.00,VWS V14.01,2013-06-25 08:44:00,
2013-06-25 02:46:00,51.4,46.1,29.79,SSW,206,0.0,0.0,82,0.00,,---,0.00,VWS V14.01,2013-06-25 08:46:00,
2013-06-25 02:47:00,51.4,46.1,29.79,SSW,206,0.0,0.0,82,0.00,,---,0.00,VWS V14.01,2013-06-25 08:47:00,
2013-06-25 02:48:00,51.4,46.1,29.79,SSW,206,0.0,0.0,82,0.00,,---,0.00,VWS V14.01,2013-06-25 08:48:00,
2013-06-25 02:49:00,51.6,46.3,29.79,SSW,206,0.0,0.0,82,0.00,,---,0.00,VWS V14.01,2013-06-25 08:49:00,
2013-06-25 02:51:00,51.6,46.6,29.79,SSW,206,0.0,2.2,83,0.00,,---,0.00,VWS V14.01,2013-06-25 08:51:00,
2013-06-25 02:52:00,51.6,46.6,29.79,SSW,206,0.0,2.2,83,0.00,,---,0.00,VWS V14.01,2013-06-25 08:52:00,
2013-06-25 02:53:00,51.8,46.8,29.79,SSW,206,0.0,2.2,83,0.00,,---,0.00,VWS V14.01,2013-06-25 08:53:00,
2013-06-25 02:54:00,51.8,46.8,29.79,SSW,206,0.0,2.2,83,0.00,,---,0.00,VWS V14.01,2013-06-25 08:54:00,
2013-06-25 02:57:00,51.8,46.8,29.79,SSW,206,0.0,2.2,83,0.00,,---,0.00,VWS V14.01,2013-06-25 08:57:00,
2013-06-25 02:58:00,51.8,46.8,29.79,SSW,206,0.0,2.2,83,0.00,,---,0.00,VWS V14.01,2013-06-25 08:58:00,
2013-06-25 03:00:00,51.8,46.8,29.79,SSW,206,0.0,2.2,83,0.00,,---,0.00,VWS V14.01,2013-06-25 09:00:00,
2013-06-25 03:02:00,51.8,46.8,29.79,SSW,206,0.0,0.0,83,0.00,,---,0.00,VWS V14.01,2013-06-25 09:02:00,
2013-06-25 03:03:00,51.8,46.8,29.79,SSW,206,0.0,0.0,83,0.00,,---,0.00,VWS V14.01,2013-06-25 09:03:00,
2013-06-25 03:04:00,51.8,46.8,29.79,SSW,206,0.0,0.0,83,0.00,,---,0.00,VWS V14.01,2013-06-25 09:04:00,
2013-06-25 03:05:00,51.8,46.8,29.79,SSW,206,0.0,0.0,83,0.00,,---,0.00,VWS V14.01,2013-06-25 09:05:00,
2013-06-25 03:07:00,51.8,46.8,29.79,SSW,206,0.0,0.0,83,0.00,,---,0.00,VWS V14.01,2013-06-25 09:07:00,
2013-06-25 03:08:00,51.8,46.8,29.79,SSW,206,0.0,0.0,83,0.00,,---,0.00,VWS V14.01,2013-06-25 09:08:00,
2013-06-25 03:09:00,51.8,46.8,29.79,SSW,206,0.0,0.0,83,0.00,,---,0.00,VWS V14.01,2013-06-25 09:09:00,
2013-06-25 03:10:00,52.0,47.0,29.79,SSW,206,0.0,0.0,83,0.00,,---,0.00,VWS V14.01,2013-06-25 09:10:00,
2013-06-25 03:12:00,52.0,46.7,29.79,SSW,206,0.0,0.0,82,0.00,,---,0.00,VWS V14.01,2013-06-25 09:12:00,
2013-06-25 03:13:00,52.0,46.7,29.79,SSW,206,0.0,0.0,82,0.00,,---,0.00,VWS V14.01,2013-06-25 09:13:00,
2013-06-25 03:14:00,52.0,46.7,29.79,SSW,206,0.0,0.0,82,0.00,,---,0.00,VWS V14.01,2013-06-25 09:14:00,
2013-06-25 03:16:00,51.8,46.5,29.79,SSE,151,2.2,2.7,82,0.00,,---,0.00,VWS V14.01,2013-06-25 09:16:00,
2013-06-25 03:18:00,51.8,46.2,29.79,SSE,151,0.0,2.7,81,0.00,,---,0.00,VWS V14.01,2013-06-25 09:18:00,
2013-06-25 03:19:00,51.6,46.3,29.79,SSE,151,2.2,2.7,82,0.00,,---,0.00,VWS V14.01,2013-06-25 09:19:00,
2013-06-25 03:21:00,51.6,46.0,29.79,SSE,151,0.0,2.7,81,0.00,,---,0.00,VWS V14.01,2013-06-25 09:21:00,
2013-06-25 03:23:00,51.4,45.8,29.79,SSE,151,2.2,2.7,81,0.00,,---,0.00,VWS V14.01,2013-06-25 09:23:00,
2013-06-25 03:24:00,51.4,45.8,29.79,SSE,151,2.7,2.7,81,0.00,,---,0.00,VWS V14.01,2013-06-25 09:24:00,
2013-06-25 03:25:00,51.4,45.8,29.79,SSE,151,0.0,2.7,81,0.00,,---,0.00,VWS V14.01,2013-06-25 09:25:00,
2013-06-25 03:26:00,51.3,45.6,29.79,SSE,151,0.0,2.7,81,0.00,,---,0.00,VWS V14.01,2013-06-25 09:26:00,
2013-06-25 03:28:00,51.3,45.6,29.79,SSE,151,0.0,2.7,81,0.00,,---,0.00,VWS V14.01,2013-06-25 09:28:00,
2013-06-25 03:29:00,51.1,45.5,29.79,SSE,151,0.0,2.7,81,0.00,,---,0.00,VWS V14.01,2013-06-25 09:29:00,
2013-06-25 03:30:00,51.1,45.5,29.79,SSE,151,0.0,0.0,81,0.00,,---,0.00,VWS V14.01,2013-06-25 09:30:00,
2013-06-25 03:31:00,51.1,45.5,29.79,SSE,151,2.7,3.1,81,0.00,,---,0.00,VWS V14.01,2013-06-25 09:31:00,
2013-06-25 03:34:00,51.3,45.6,29.79,SSW,195,4.5,4.5,81,0.00,,---,0.00,VWS V14.01,2013-06-25 09:34:00,
2013-06-25 03:35:00,51.4,45.8,29.79,SSW,200,4.0,4.5,81,0.00,,---,0.00,VWS V14.01,2013-06-25 09:35:00,
2013-06-25 03:36:00,51.6,44.7,29.79,SSW,204,4.0,4.9,77,0.00,,---,0.00,VWS V14.01,2013-06-25 09:36:00,
2013-06-25 03:39:00,52.3,44.0,29.79,SSW,207,5.4,6.3,73,0.00,,---,0.00,VWS V14.01,2013-06-25 09:39:00,
2013-06-25 03:40:00,52.5,43.4,29.79,SSW,192,5.4,6.3,71,0.00,,---,0.00,VWS V14.01,2013-06-25 09:40:00,
2013-06-25 03:41:00,52.7,41.7,29.79,SW,214,5.4,6.3,66,0.00,,---,0.00,VWS V14.01,2013-06-25 09:41:00,
2013-06-25 03:42:00,53.1,42.0,29.79,SSW,197,5.4,6.3,66,0.00,,---,0.00,VWS V14.01,2013-06-25 09:42:00,
2013-06-25 03:44:00,53.4,42.4,29.79,SSW,207,5.4,6.3,66,0.00,,---,0.00,VWS V14.01,2013-06-25 09:44:00,
2013-06-25 03:45:00,53.8,41.5,29.79,SSW,209,4.5,6.3,63,0.00,,---,0.00,VWS V14.01,2013-06-25 09:45:00,
2013-06-25 03:47:00,54.0,40.4,29.79,SSW,200,5.8,5.8,60,0.00,,---,0.00,VWS V14.01,2013-06-25 09:47:00,
2013-06-25 03:49:00,54.3,39.9,29.79,SSW,206,5.4,5.8,58,0.00,,---,0.00,VWS V14.01,2013-06-25 09:49:00,
2013-06-25 03:50:00,54.5,40.0,29.79,SSW,207,5.4,5.8,58,0.00,,---,0.00,VWS V14.01,2013-06-25 09:50:00,
2013-06-25 03:52:00,54.5,39.6,29.79,SSW,200,5.4,5.8,57,0.00,,---,0.00,VWS V14.01,2013-06-25 09:52:00,
2013-06-25 03:53:00,54.5,39.1,29.79,SSW,202,5.4,5.8,56,0.00,,---,0.00,VWS V14.01,2013-06-25 09:53:00,
2013-06-25 03:54:00,54.7,39.3,29.79,SSW,201,5.8,6.3,56,0.00,,---,0.00,VWS V14.01,2013-06-25 09:54:00,
2013-06-25 03:56:00,54.7,38.8,29.79,SSW,199,5.4,6.3,55,0.00,,---,0.00,VWS V14.01,2013-06-25 09:56:00,
2013-06-25 03:57:00,54.7,38.8,29.79,SSW,195,5.4,6.3,55,0.00,,---,0.00,VWS V14.01,2013-06-25 09:57:00,
2013-06-25 03:58:00,54.7,37.9,29.79,SSW,202,5.4,6.3,53,0.00,,---,0.00,VWS V14.01,2013-06-25 09:58:00,
2013-06-25 03:59:00,54.7,37.9,29.79,SSW,198,6.3,6.3,53,0.00,,---,0.00,VWS V14.01,2013-06-25 09:59:00,
2013-06-25 04:00:00,54.7,37.9,29.79,SSW,204,5.4,6.3,53,0.00,,---,0.00,VWS V14.01,2013-06-25 10:00:00,
2013-06-25 04:01:00,54.9,38.1,29.79,SSW,204,5.4,5.8,53,0.00,,---,0.00,VWS V14.01,2013-06-25 10:01:00,
2013-06-25 04:02:00,54.9,37.6,29.79,SSW,199,6.3,6.3,52,0.00,,---,0.00,VWS V14.01,2013-06-25 10:02:00,
2013-06-25 04:04:00,55.0,37.8,29.79,SSW,203,5.8,6.3,52,0.00,,---,0.00,VWS V14.01,2013-06-25 10:04:00,
2013-06-25 04:05:00,55.0,37.8,29.79,SSW,205,4.9,6.3,52,0.00,,---,0.00,VWS V14.01,2013-06-25 10:05:00,
2013-06-25 04:06:00,55.0,37.8,29.79,South,189,5.4,6.3,52,0.00,,---,0.00,VWS V14.01,2013-06-25 10:06:00,
2013-06-25 04:08:00,55.0,37.8,29.79,SSW,199,5.4,6.3,52,0.00,,---,0.00,VWS V14.01,2013-06-25 10:08:00,
2013-06-25 04:09:00,55.0,37.8,29.79,SSW,194,5.4,6.3,52,0.00,,---,0.00,VWS V14.01,2013-06-25 10:09:00,
2013-06-25 04:10:00,55.0,37.8,29.79,SSW,194,4.9,6.3,52,0.00,,---,0.00,VWS V14.01,2013-06-25 10:10:00,
2013-06-25 04:11:00,55.0,37.3,29.79,SSW,203,6.3,6.3,51,0.00,,---,0.00,VWS V14.01,2013-06-25 10:11:00,
2013-06-25 04:13:00,55.0,37.8,29.79,SW,214,4.9,6.3,52,0.00,,---,0.00,VWS V14.01,2013-06-25 10:13:00,
2013-06-25 04:14:00,55.0,37.8,29.79,SSW,211,5.8,6.3,52,0.00,,---,0.00,VWS V14.01,2013-06-25 10:14:00,
2013-06-25 04:15:00,55.0,37.8,29.79,SSW,203,5.4,6.3,52,0.00,,---,0.00,VWS V14.01,2013-06-25 10:15:00,
2013-06-25 04:17:00,55.0,37.8,29.79,SSW,206,3.6,5.4,52,0.00,,---,0.00,VWS V14.01,2013-06-25 10:17:00,
2013-06-25 04:18:00,55.0,37.8,29.79,SSW,206,4.9,5.4,52,0.00,,---,0.00,VWS V14.01,2013-06-25 10:18:00,
2013-06-25 04:19:00,54.9,38.1,29.79,SSW,207,3.6,5.4,53,0.00,,---,0.00,VWS V14.01,2013-06-25 10:19:00,
2013-06-25 04:20:00,54.9,37.6,29.79,SSW,205,3.1,5.4,52,0.00,,---,0.00,VWS V14.01,2013-06-25 10:20:00,
2013-06-25 04:21:00,54.9,37.6,29.79,SSW,208,2.7,5.4,52,0.00,,---,0.00,VWS V14.01,2013-06-25 10:21:00,
2013-06-25 04:23:00,54.7,37.4,29.79,SSW,208,0.0,5.4,52,0.00,,---,0.00,VWS V14.01,2013-06-25 10:23:00,
2013-06-25 04:24:00,54.7,37.9,29.79,SSW,208,2.7,5.4,53,0.00,,---,0.00,VWS V14.01,2013-06-25 10:24:00,
2013-06-25 04:25:00,54.7,37.9,29.79,SSW,208,2.2,5.4,53,0.00,,---,0.00,VWS V14.01,2013-06-25 10:25:00,
2013-06-25 04:26:00,54.5,37.7,29.79,SSW,208,0.0,5.4,53,0.00,,---,0.00,VWS V14.01,2013-06-25 10:26:00,
2013-06-25 04:28:00,54.3,38.0,29.79,SSW,208,2.2,5.4,54,0.00,,---,0.00,VWS V14.01,2013-06-25 10:28:00,
2013-06-25 04:29:00,54.1,38.3,29.79,SSW,208,3.1,5.4,55,0.00,,---,0.00,VWS V14.01,2013-06-25 10:29:00,
2013-06-25 04:30:00,54.0,38.6,29.79,SSW,208,2.2,2.7,56,0.00,,---,0.00,VWS V14.01,2013-06-25 10:30:00,
2013-06-25 04:31:00,54.0,38.6,29.79,SSW,208,2.7,2.7,56,0.00,,---,0.00,VWS V14.01,2013-06-25 10:31:00,
2013-06-25 04:33:00,53.6,38.8,29.79,SSW,208,0.0,2.7,57,0.00,,---,0.00,VWS V14.01,2013-06-25 10:33:00,
2013-06-25 04:34:00,53.4,38.6,29.79,SSW,208,0.0,2.7,57,0.00,,---,0.00,VWS V14.01,2013-06-25 10:34:00,
2013-06-25 04:35:00,53.2,38.4,29.79,South,174,3.1,3.1,57,0.00,,---,0.00,VWS V14.01,2013-06-25 10:35:00,
2013-06-25 04:36:00,53.2,38.4,29.79,South,174,0.0,3.1,57,0.00,,---,0.00,VWS V14.01,2013-06-25 10:36:00,
2013-06-25 04:38:00,52.9,39.4,29.79,South,174,0.0,3.1,60,0.00,,---,0.00,VWS V14.01,2013-06-25 10:38:00,
2013-06-25 04:39:00,52.7,40.1,29.79,South,174,0.0,3.1,62,0.00,,---,0.00,VWS V14.01,2013-06-25 10:39:00,
2013-06-25 04:40:00,52.7,40.1,29.79,South,174,2.7,3.1,62,0.00,,---,0.00,VWS V14.01,2013-06-25 10:40:00,
2013-06-25 04:41:00,52.7,40.1,29.79,South,174,2.2,3.1,62,0.00,,---,0.00,VWS V14.01,2013-06-25 10:41:00,
2013-06-25 04:43:00,52.3,39.7,29.79,South,174,0.0,3.1,62,0.00,,---,0.00,VWS V14.01,2013-06-25 10:43:00,
2013-06-25 04:44:00,52.2,40.0,29.79,South,173,0.0,3.1,63,0.00,,---,0.00,VWS V14.01,2013-06-25 10:44:00,
2013-06-25 04:45:00,52.2,40.0,29.79,South,173,0.0,3.1,63,0.00,,---,0.00,VWS V14.01,2013-06-25 10:45:00,
2013-06-25 04:46:00,52.0,40.2,29.79,South,174,0.0,0.0,64,0.00,,---,0.00,VWS V14.01,2013-06-25 10:46:00,
2013-06-25 04:48:00,51.6,40.2,29.82,South,174,0.0,0.0,65,0.00,,---,0.00,VWS V14.01,2013-06-25 10:48:00,
2013-06-25 04:49:00,51.6,40.2,29.82,South,173,0.0,0.0,65,0.00,,---,0.00,VWS V14.01,2013-06-25 10:49:00,
2013-06-25 04:50:00,51.6,40.2,29.82,South,173,0.0,0.0,65,0.00,,---,0.00,VWS V14.01,2013-06-25 10:50:00,
2013-06-25 04:51:00,51.4,40.1,29.82,South,174,0.0,0.0,65,0.00,,---,0.00,VWS V14.01,2013-06-25 10:51:00,
2013-06-25 04:52:00,51.4,40.1,29.82,South,174,2.2,2.2,65,0.00,,---,0.00,VWS V14.01,2013-06-25 10:52:00,
2013-06-25 04:54:00,51.1,40.5,29.82,South,174,0.0,2.2,67,0.00,,---,0.00,VWS V14.01,2013-06-25 10:54:00,
2013-06-25 04:55:00,51.1,40.5,29.82,South,174,0.0,2.2,67,0.00,,---,0.00,VWS V14.01,2013-06-25 10:55:00,
2013-06-25 04:56:00,51.1,40.5,29.82,South,174,0.0,2.2,67,0.00,,---,0.00,VWS V14.01,2013-06-25 10:56:00,
2013-06-25 04:57:00,50.9,40.7,29.82,South,174,0.0,2.2,68,0.00,,---,0.00,VWS V14.01,2013-06-25 10:57:00,
2013-06-25 04:59:00,50.7,40.6,29.82,South,174,0.0,2.2,68,0.00,,---,0.00,VWS V14.01,2013-06-25 10:59:00,
2013-06-25 05:00:00,50.7,40.6,29.82,South,174,0.0,2.2,68,0.00,,---,0.00,VWS V14.01,2013-06-25 11:00:00,
2013-06-25 05:01:00,50.5,40.4,29.82,South,174,0.0,0.0,68,0.00,,---,0.00,VWS V14.01,2013-06-25 11:01:00,
2013-06-25 05:03:00,50.4,40.6,29.82,South,174,0.0,0.0,69,0.00,,---,0.00,VWS V14.01,2013-06-25 11:03:00,
2013-06-25 05:04:00,50.2,40.8,29.82,South,174,0.0,0.0,70,0.00,,---,0.00,VWS V14.01,2013-06-25 11:04:00,
2013-06-25 05:05:00,50.2,40.8,29.82,South,174,0.0,0.0,70,0.00,,---,0.00,VWS V14.01,2013-06-25 11:05:00,
2013-06-25 05:06:00,50.2,41.2,29.82,South,174,0.0,0.0,71,0.00,,---,0.00,VWS V14.01,2013-06-25 11:06:00,
2013-06-25 05:08:00,50.2,41.5,29.82,South,174,2.2,2.2,72,0.00,,---,0.00,VWS V14.01,2013-06-25 11:08:00,
2013-06-25 05:09:00,50.2,41.9,29.82,South,174,0.0,2.2,73,0.00,,---,0.00,VWS V14.01,2013-06-25 11:09:00,
2013-06-25 05:10:00,50.2,41.9,29.82,South,174,2.7,2.7,73,0.00,,---,0.00,VWS V14.01,2013-06-25 11:10:00,
2013-06-25 05:11:00,50.2,41.9,29.82,South,174,2.2,2.7,73,0.00,,---,0.00,VWS V14.01,2013-06-25 11:11:00,
2013-06-25 05:12:00,50.2,42.6,29.82,South,187,3.6,3.6,75,0.00,,---,0.00,VWS V14.01,2013-06-25 11:12:00,
2013-06-25 05:13:00,50.2,42.6,29.82,SSW,201,2.7,3.6,75,0.00,,---,0.00,VWS V14.01,2013-06-25 11:13:00,
2013-06-25 05:14:00,50.2,42.6,29.82,SSW,201,3.1,3.6,75,0.00,,---,0.00,VWS V14.01,2013-06-25 11:14:00,
2013-06-25 05:15:00,50.2,42.9,29.82,SSW,197,4.9,4.9,76,0.00,,---,0.00,VWS V14.01,2013-06-25 11:15:00,
2013-06-25 05:16:00,50.2,42.9,29.82,SSW,199,4.9,4.9,76,0.00,,---,0.00,VWS V14.01,2013-06-25 11:16:00,
2013-06-25 05:17:00,50.4,43.1,29.82,SSW,196,5.4,5.4,76,0.00,,---,0.00,VWS V14.01,2013-06-25 11:17:00,
2013-06-25 05:18:00,50.4,43.1,29.82,SSW,198,4.0,5.4,76,0.00,,---,0.00,VWS V14.01,2013-06-25 11:18:00,
2013-06-25 05:19:00,50.5,42.9,29.82,SSW,195,3.6,5.4,75,0.00,,---,0.00,VWS V14.01,2013-06-25 11:19:00,
2013-06-25 05:20:00,50.7,42.8,29.82,SSW,192,4.9,5.4,74,0.00,,---,0.00,VWS V14.01,2013-06-25 11:20:00,
2013-06-25 05:21:00,50.7,42.0,29.82,SSW,198,4.0,5.4,72,0.00,,---,0.00,VWS V14.01,2013-06-25 11:21:00,
2013-06-25 05:22:00,50.7,42.0,29.82,SSW,204,4.0,5.4,72,0.00,,---,0.00,VWS V14.01,2013-06-25 11:22:00,
2013-06-25 05:24:00,51.1,42.0,29.82,SSW,196,2.7,5.4,71,0.00,,---,0.00,VWS V14.01,2013-06-25 11:24:00,
2013-06-25 05:25:00,51.1,41.7,29.82,SSW,196,0.0,5.4,70,0.00,,---,0.00,VWS V14.01,2013-06-25 11:25:00,
2013-06-25 05:27:00,51.3,41.5,29.82,North,0,3.6,5.4,69,0.00,,---,0.00,VWS V14.01,2013-06-25 11:27:00,
2013-06-25 05:29:00,51.1,41.3,29.82,North,0,2.2,5.4,69,0.00,,---,0.00,VWS V14.01,2013-06-25 11:29:00,
2013-06-25 05:30:00,51.1,41.3,29.82,North,0,2.7,5.4,69,0.00,,---,0.00,VWS V14.01,2013-06-25 11:30:00,
2013-06-25 05:31:00,51.1,41.3,29.82,North,0,0.0,2.7,69,0.00,,---,0.00,VWS V14.01,2013-06-25 11:31:00,
2013-06-25 05:32:00,51.1,41.7,29.82,North,0,0.0,2.7,70,0.00,,---,0.00,VWS V14.01,2013-06-25 11:32:00,
2013-06-25 05:34:00,51.3,41.8,29.82,North,357,3.6,4.0,70,0.00,,---,0.00,VWS V14.01,2013-06-25 11:34:00,
2013-06-25 05:35:00,51.3,41.8,29.82,North,357,2.7,4.0,70,0.00,,---,0.00,VWS V14.01,2013-06-25 11:35:00,
2013-06-25 05:36:00,51.4,42.0,29.82,North,357,2.2,4.0,70,0.00,,---,0.00,VWS V14.01,2013-06-25 11:36:00,
2013-06-25 05:37:00,51.6,42.2,29.82,North,357,0.0,4.0,70,0.00,,---,0.00,VWS V14.01,2013-06-25 11:37:00,
2013-06-25 05:38:00,51.6,42.2,29.82,North,357,0.0,4.0,70,0.00,,---,0.00,VWS V14.01,2013-06-25 11:38:00,
2013-06-25 05:39:00,51.6,41.8,29.82,East,98,0.0,4.0,69,0.00,,---,0.00,VWS V14.01,2013-06-25 11:39:00,
2013-06-25 05:40:00,51.8,41.6,29.82,ESE,122,2.2,4.0,68,0.00,,---,0.00,VWS V14.01,2013-06-25 11:40:00,
2013-06-25 05:41:00,51.8,41.6,29.82,SSW,193,2.7,4.0,68,0.00,,---,0.00,VWS V14.01,2013-06-25 11:41:00,
2013-06-25 05:42:00,51.6,41.4,29.82,SSW,193,0.0,4.0,68,0.00,,---,0.00,VWS V14.01,2013-06-25 11:42:00,
2013-06-25 05:43:00,51.6,41.4,29.82,SSW,193,0.0,4.0,68,0.00,,---,0.00,VWS V14.01,2013-06-25 11:43:00,
2013-06-25 05:44:00,51.6,41.4,29.82,South,191,0.0,4.0,68,0.00,,---,0.00,VWS V14.01,2013-06-25 11:44:00,
2013-06-25 05:45:00,51.4,41.2,29.82,South,191,0.0,0.0,68,0.00,,---,0.00,VWS V14.01,2013-06-25 11:45:00,
2013-06-25 05:47:00,51.4,41.2,29.82,South,191,0.0,0.0,68,0.00,,---,0.00,VWS V14.01,2013-06-25 11:47:00,
2013-06-25 05:48:00,51.3,41.5,29.82,South,191,0.0,0.0,69,0.00,,---,0.00,VWS V14.01,2013-06-25 11:48:00,
2013-06-25 05:49:00,51.1,41.3,29.82,South,191,0.0,0.0,69,0.00,,---,0.00,VWS V14.01,2013-06-25 11:49:00,
2013-06-25 05:51:00,50.9,41.1,29.82,South,191,0.0,0.0,69,0.00,,---,0.00,VWS V14.01,2013-06-25 11:51:00,
2013-06-25 05:52:00,50.7,40.9,29.82,South,191,0.0,0.0,69,0.00,,---,0.00,VWS V14.01,2013-06-25 11:52:00,
2013-06-25 05:53:00,50.7,40.9,29.82,South,191,0.0,0.0,69,0.00,,---,0.00,VWS V14.01,2013-06-25 11:53:00,
2013-06-25 05:55:00,50.7,40.9,29.82,South,191,0.0,0.0,69,0.00,,---,0.00,VWS V14.01,2013-06-25 11:55:00,
2013-06-25 05:56:00,50.5,40.8,29.82,South,191,0.0,0.0,69,0.00,,---,0.00,VWS V14.01,2013-06-25 11:56:00,
2013-06-25 05:57:00,50.5,40.8,29.82,South,191,0.0,0.0,69,0.00,,---,0.00,VWS V14.01,2013-06-25 11:57:00,
2013-06-25 05:58:00,50.4,41.0,29.82,South,191,0.0,0.0,70,0.00,,---,0.00,VWS V14.01,2013-06-25 11:58:00,
2013-06-25 05:59:00,50.4,41.0,29.82,South,191,0.0,0.0,70,0.00,,---,0.00,VWS V14.01,2013-06-25 11:59:00,
2013-06-25 06:00:00,50.4,41.0,29.82,South,191,0.0,0.0,70,0.00,,---,0.00,VWS V14.01,2013-06-25 12:00:00,
2013-06-25 06:01:00,50.4,41.3,29.82,South,191,0.0,0.0,71,0.00,,---,0.00,VWS V14.01,2013-06-25 12:01:00,
2013-06-25 06:02:00,50.4,41.3,29.82,South,191,0.0,0.0,71,0.00,,---,0.00,VWS V14.01,2013-06-25 12:02:00,
2013-06-25 06:03:00,50.5,41.5,29.82,South,191,0.0,2.2,71,0.00,,---,0.00,VWS V14.01,2013-06-25 12:03:00,
2013-06-25 06:04:00,50.5,41.5,29.82,South,191,0.0,2.2,71,0.00,,---,0.00,VWS V14.01,2013-06-25 12:04:00,
2013-06-25 06:05:00,50.5,41.5,29.82,South,191,0.0,2.2,71,0.00,,---,0.00,VWS V14.01,2013-06-25 12:05:00,
2013-06-25 06:07:00,50.5,41.5,29.82,South,191,0.0,2.2,71,0.00,,---,0.00,VWS V14.01,2013-06-25 12:07:00,
2013-06-25 06:08:00,50.5,41.5,29.82,South,191,0.0,2.2,71,0.00,,---,0.00,VWS V14.01,2013-06-25 12:08:00,
2013-06-25 06:09:00,50.4,41.3,29.82,South,191,0.0,2.2,71,0.00,,---,0.00,VWS V14.01,2013-06-25 12:09:00,
2013-06-25 06:11:00,50.4,41.3,29.82,South,191,0.0,2.2,71,0.00,,---,0.00,VWS V14.01,2013-06-25 12:11:00,
2013-06-25 06:13:00,50.4,41.3,29.82,South,191,3.1,3.1,71,0.00,,---,0.00,VWS V14.01,2013-06-25 12:13:00,
2013-06-25 06:14:00,50.5,41.5,29.82,South,191,2.7,3.1,71,0.00,,---,0.00,VWS V14.01,2013-06-25 12:14:00,
2013-06-25 06:16:00,50.7,41.3,29.82,South,190,2.7,3.6,70,0.00,,---,0.00,VWS V14.01,2013-06-25 12:16:00,
2013-06-25 06:18:00,50.9,41.1,29.82,South,186,4.0,4.0,69,0.00,,---,0.00,VWS V14.01,2013-06-25 12:18:00,
2013-06-25 06:19:00,51.1,40.5,29.82,SSW,206,4.0,5.8,67,0.00,,---,0.00,VWS V14.01,2013-06-25 12:19:00,
2013-06-25 06:20:00,51.3,39.9,29.82,SSW,213,4.0,5.8,65,0.00,,---,0.00,VWS V14.01,2013-06-25 12:20:00,
2013-06-25 06:21:00,51.4,38.9,29.82,SSW,202,4.0,5.8,62,0.00,,---,0.00,VWS V14.01,2013-06-25 12:21:00,
2013-06-25 06:23:00,52.2,37.0,29.82,SSW,195,4.5,5.8,56,0.00,,---,0.00,VWS V14.01,2013-06-25 12:23:00,
2013-06-25 06:24:00,52.2,37.0,29.82,SSW,199,2.7,5.8,56,0.00,,---,0.00,VWS V14.01,2013-06-25 12:24:00,
2013-06-25 06:25:00,52.5,36.4,29.82,SSW,207,4.0,5.8,54,0.00,,---,0.00,VWS V14.01,2013-06-25 12:25:00,
2013-06-25 06:26:00,53.1,35.4,29.82,SSW,199,4.9,5.8,51,0.00,,---,0.00,VWS V14.01,2013-06-25 12:26:00,
2013-06-25 06:29:00,53.6,35.4,29.82,South,183,4.0,5.8,50,0.00,,---,0.00,VWS V14.01,2013-06-25 12:29:00,
2013-06-25 06:30:00,53.8,35.1,29.82,SSW,202,2.7,5.8,49,0.00,,---,0.00,VWS V14.01,2013-06-25 12:30:00,
2013-06-25 06:32:00,54.1,34.9,29.82,SSW,200,3.1,3.6,48,0.00,,---,0.00,VWS V14.01,2013-06-25 12:32:00,
2013-06-25 06:34:00,54.1,34.9,29.82,SSW,200,3.6,4.0,48,0.00,,---,0.00,VWS V14.01,2013-06-25 12:34:00,
2013-06-25 06:35:00,54.3,35.1,29.82,SSW,200,2.7,4.0,48,0.00,,---,0.00,VWS V14.01,2013-06-25 12:35:00,
2013-06-25 06:37:00,54.5,35.2,29.82,SSW,200,2.2,4.0,48,0.00,,---,0.00,VWS V14.01,2013-06-25 12:37:00,
2013-06-25 06:39:00,54.5,34.7,29.82,SSW,197,2.7,4.0,47,0.00,,---,0.00,VWS V14.01,2013-06-25 12:39:00,
2013-06-25 06:40:00,54.5,35.2,29.82,SSW,207,0.0,4.0,48,0.00,,---,0.00,VWS V14.01,2013-06-25 12:40:00,
2013-06-25 06:43:00,54.5,35.2,29.82,SSW,205,0.0,4.0,48,0.00,,---,0.00,VWS V14.01,2013-06-25 12:43:00,
2013-06-25 06:44:00,54.3,35.1,29.82,SSW,205,2.7,4.0,48,0.00,,---,0.00,VWS V14.01,2013-06-25 12:44:00,
2013-06-25 06:45:00,54.1,34.9,29.82,SSW,200,4.0,4.0,48,0.00,,---,0.00,VWS V14.01,2013-06-25 12:45:00,
2013-06-25 06:46:00,54.1,34.9,29.82,SSW,200,2.2,4.0,48,0.00,,---,0.00,VWS V14.01,2013-06-25 12:46:00,
2013-06-25 06:49:00,54.1,34.9,29.82,SSW,200,0.0,4.0,48,0.00,,---,0.00,VWS V14.01,2013-06-25 12:49:00,
2013-06-25 06:50:00,54.1,34.9,29.82,SSW,200,0.0,4.0,48,0.00,,---,0.00,VWS V14.01,2013-06-25 12:50:00,
2013-06-25 06:51:00,54.1,34.9,29.82,SSW,200,2.7,4.0,48,0.00,,---,0.00,VWS V14.01,2013-06-25 12:51:00,
2013-06-25 06:54:00,54.3,35.1,29.82,SSW,201,0.0,4.0,48,0.00,,---,0.00,VWS V14.01,2013-06-25 12:54:00,
2013-06-25 06:55:00,54.3,35.1,29.82,SSW,199,3.1,4.9,48,0.00,,---,0.00,VWS V14.01,2013-06-25 12:55:00,
2013-06-25 06:56:00,54.5,34.7,29.82,SSW,198,0.0,4.9,47,0.00,,---,0.00,VWS V14.01,2013-06-25 12:56:00,
2013-06-25 06:59:00,54.9,35.0,29.82,SSW,206,2.7,4.9,47,0.00,,---,0.00,VWS V14.01,2013-06-25 12:59:00,
2013-06-25 07:00:00,55.0,35.2,29.82,SSW,202,0.0,0.0,47,0.00,,---,0.00,VWS V14.01,2013-06-25 13:00:00,
2013-06-25 07:01:00,55.2,35.4,29.82,South,173,2.7,3.1,47,0.00,,---,0.00,VWS V14.01,2013-06-25 13:01:00,
2013-06-25 07:05:00,55.8,35.3,29.82,South,183,4.0,5.8,46,0.00,,---,0.00,VWS V14.01,2013-06-25 13:05:00,
2013-06-25 07:06:00,56.1,35.6,29.82,SW,216,4.0,5.8,46,0.00,,---,0.00,VWS V14.01,2013-06-25 13:06:00,
2013-06-25 07:07:00,56.1,35.6,29.82,SW,223,4.0,5.8,46,0.00,,---,0.00,VWS V14.01,2013-06-25 13:07:00,
2013-06-25 07:10:00,56.5,34.3,29.82,SSW,193,6.3,6.7,43,0.00,,---,0.00,VWS V14.01,2013-06-25 13:10:00,
2013-06-25 07:11:00,56.7,34.4,29.82,South,187,5.8,6.7,43,0.00,,---,0.00,VWS V14.01,2013-06-25 13:11:00,
2013-06-25 07:12:00,56.7,34.4,29.82,SSW,200,5.8,6.7,43,0.00,,---,0.00,VWS V14.01,2013-06-25 13:12:00,
2013-06-25 07:15:00,56.8,34.0,29.82,SSW,206,6.3,6.3,42,0.00,,---,0.00,VWS V14.01,2013-06-25 13:15:00,
2013-06-25 07:16:00,56.8,33.4,29.82,SW,214,6.3,7.6,41,0.00,,---,0.00,VWS V14.01,2013-06-25 13:16:00,
2013-06-25 07:17:00,57.0,34.2,29.82,SSW,208,5.8,7.6,42,0.00,,---,0.00,VWS V14.01,2013-06-25 13:17:00,
2013-06-25 07:20:00,57.4,33.9,29.82,SW,214,4.0,7.6,41,0.00,,---,0.00,VWS V14.01,2013-06-25 13:20:00,
2013-06-25 07:21:00,57.4,33.9,29.82,SW,217,4.9,7.6,41,0.00,,---,0.00,VWS V14.01,2013-06-25 13:21:00,
2013-06-25 07:23:00,57.6,34.1,29.82,SW,231,6.3,7.6,41,0.00,,---,0.00,VWS V14.01,2013-06-25 13:23:00,
2013-06-25 07:25:00,57.6,33.4,29.82,SSW,211,5.4,8.1,40,0.00,,---,0.00,VWS V14.01,2013-06-25 13:25:00,
2013-06-25 07:26:00,57.4,33.3,29.82,WSW,237,4.0,8.1,40,0.00,,---,0.00,VWS V14.01,2013-06-25 13:26:00,
2013-06-25 07:28:00,57.4,33.9,29.82,SSW,202,5.8,8.1,41,0.00,,---,0.00,VWS V14.01,2013-06-25 13:28:00,
2013-06-25 07:30:00,57.2,33.7,29.82,SSW,212,4.0,4.0,41,0.00,,---,0.00,VWS V14.01,2013-06-25 13:30:00,
2013-06-25 07:31:00,57.2,33.1,29.82,SSW,209,6.3,7.2,40,0.00,,---,0.00,VWS V14.01,2013-06-25 13:31:00,
2013-06-25 07:33:00,57.2,33.7,29.82,SW,217,3.6,7.2,41,0.00,,---,0.00,VWS V14.01,2013-06-25 13:33:00,
2013-06-25 07:35:00,57.0,33.0,29.82,SSW,196,8.1,8.1,40,0.00,,---,0.00,VWS V14.01,2013-06-25 13:35:00,
2013-06-25 07:36:00,57.2,34.3,29.82,SW,216,5.8,8.1,42,0.00,,---,0.00,VWS V14.01,2013-06-25 13:36:00,
2013-06-25 07:37:00,57.2,34.3,29.82,SSW,209,4.5,8.1,42,0.00,,---,0.00,VWS V14.01,2013-06-25 13:37:00,
2013-06-25 07:38:00,57.0,33.0,29.82,SSW,210,8.1,8.1,40,0.00,,---,0.00,VWS V14.01,2013-06-25 13:38:00,
2013-06-25 07:41:00,57.2,33.1,29.82,SW,216,6.7,8.1,40,0.00,,---,0.00,VWS V14.01,2013-06-25 13:41:00,
2013-06-25 07:42:00,57.4,33.9,29.82,SSW,200,5.4,8.1,41,0.00,,---,0.00,VWS V14.01,2013-06-25 13:42:00,
2013-06-25 07:44:00,57.4,34.5,29.82,SW,233,3.6,8.1,42,0.00,,---,0.00,VWS V14.01,2013-06-25 13:44:00,
2013-06-25 07:46:00,57.6,32.8,29.82,SSW,207,6.3,6.3,39,0.00,,---,0.00,VWS V14.01,2013-06-25 13:46:00,
2013-06-25 07:47:00,57.6,32.8,29.82,SSW,194,5.4,6.3,39,0.00,,---,0.00,VWS V14.01,2013-06-25 13:47:00,
2013-06-25 07:49:00,57.7,33.6,29.82,SW,224,4.0,6.3,40,0.00,,---,0.00,VWS V14.01,2013-06-25 13:49:00,
2013-06-25 07:51:00,57.9,33.8,29.82,WSW,252,4.0,6.7,40,0.00,,---,0.00,VWS V14.01,2013-06-25 13:51:00,
2013-06-25 07:52:00,57.9,33.1,29.82,SW,220,5.4,6.7,39,0.00,,---,0.00,VWS V14.01,2013-06-25 13:52:00,
2013-06-25 07:53:00,57.9,33.1,29.82,SSW,200,5.4,6.7,39,0.00,,---,0.00,VWS V14.01,2013-06-25 13:53:00,
2013-06-25 07:54:00,57.9,32.5,29.82,South,187,5.4,6.7,38,0.00,,---,0.00,VWS V14.01,2013-06-25 13:54:00,
2013-06-25 07:56:00,58.1,32.7,29.82,SSW,197,4.9,6.7,38,0.00,,---,0.00,VWS V14.01,2013-06-25 13:56:00,
2013-06-25 07:57:00,58.5,33.0,29.82,SW,214,4.0,6.7,38,0.00,,---,0.00,VWS V14.01,2013-06-25 13:57:00,
2013-06-25 07:59:00,58.5,33.0,29.82,SSW,208,5.4,9.2,38,0.00,,---,0.00,VWS V14.01,2013-06-25 13:59:00,
2013-06-25 08:01:00,59.0,32.8,29.82,SSW,203,8.1,8.1,37,0.00,,---,0.00,VWS V14.01,2013-06-25 14:01:00,
2013-06-25 08:03:00,59.2,33.0,29.82,SSW,208,6.3,8.1,37,0.00,,---,0.00,VWS V14.01,2013-06-25 14:03:00,
2013-06-25 08:04:00,59.2,32.3,29.82,SSW,194,6.3,8.1,36,0.00,,---,0.00,VWS V14.01,2013-06-25 14:04:00,
2013-06-25 08:05:00,59.2,32.3,29.82,South,185,6.3,8.1,36,0.00,,---,0.00,VWS V14.01,2013-06-25 14:05:00,
2013-06-25 08:07:00,59.4,32.4,29.82,SW,218,5.4,8.7,36,0.00,,---,0.00,VWS V14.01,2013-06-25 14:07:00,
2013-06-25 08:08:00,59.4,32.4,29.82,South,191,5.8,8.7,36,0.00,,---,0.00,VWS V14.01,2013-06-25 14:08:00,
2013-06-25 08:09:00,59.4,32.4,29.82,SSW,196,4.0,8.7,36,0.00,,---,0.00,VWS V14.01,2013-06-25 14:09:00,
2013-06-25 08:10:00,59.4,32.4,29.82,SSW,210,5.4,8.7,36,0.00,,---,0.00,VWS V14.01,2013-06-25 14:10:00,
2013-06-25 08:11:00,59.4,32.4,29.82,SSW,206,5.8,8.7,36,0.00,,---,0.00,VWS V14.01,2013-06-25 14:11:00,
2013-06-25 08:12:00,59.4,32.4,29.82,SSW,196,6.3,8.7,36,0.00,,---,0.00,VWS V14.01,2013-06-25 14:12:00,
2013-06-25 08:13:00,59.5,32.6,29.82,SSE,168,4.0,8.7,36,0.00,,---,0.00,VWS V14.01,2013-06-25 14:13:00,
2013-06-25 08:14:00,59.5,32.6,29.82,SSW,207,8.1,8.7,36,0.00,,---,0.00,VWS V14.01,2013-06-25 14:14:00,
2013-06-25 08:15:00,59.5,32.6,29.82,SSW,204,8.1,10.1,36,0.00,,---,0.00,VWS V14.01,2013-06-25 14:15:00,
2013-06-25 08:16:00,59.5,32.6,29.82,SSW,211,6.3,8.1,36,0.00,,---,0.00,VWS V14.01,2013-06-25 14:16:00,
2013-06-25 08:17:00,59.7,32.7,29.82,SSW,207,8.1,8.1,36,0.00,,---,0.00,VWS V14.01,2013-06-25 14:17:00,
2013-06-25 08:18:00,59.7,32.0,29.82,SSW,210,8.7,10.5,35,0.00,,---,0.00,VWS V14.01,2013-06-25 14:18:00,
2013-06-25 08:19:00,59.7,32.0,29.82,South,191,8.7,10.5,35,0.00,,---,0.00,VWS V14.01,2013-06-25 14:19:00,
2013-06-25 08:20:00,59.7,32.0,29.82,South,190,10.1,10.5,35,0.00,,---,0.00,VWS V14.01,2013-06-25 14:20:00,
2013-06-25 08:22:00,59.7,32.0,29.82,SW,220,4.9,10.5,35,0.00,,---,0.00,VWS V14.01,2013-06-25 14:22:00,
2013-06-25 08:23:00,59.7,32.0,29.82,SSW,195,5.8,10.5,35,0.00,,---,0.00,VWS V14.01,2013-06-25 14:23:00,
2013-06-25 08:25:00,59.7,32.0,29.82,SW,216,7.6,10.5,35,0.00,,---,0.00,VWS V14.01,2013-06-25 14:25:00,
2013-06-25 08:28:00,59.9,32.2,29.82,SSW,197,8.1,10.5,35,0.00,,---,0.00,VWS V14.01,2013-06-25 14:28:00,
2013-06-25 08:30:00,60.1,32.4,29.82,SW,223,5.4,10.5,35,0.00,,---,0.00,VWS V14.01,2013-06-25 14:30:00,
2013-06-25 08:31:00,60.1,32.4,29.82,SW,219,6.3,6.3,35,0.00,,---,0.00,VWS V14.01,2013-06-25 14:31:00,
2013-06-25 08:33:00,60.3,32.5,29.85,SW,235,4.0,6.3,35,0.00,,---,0.00,VWS V14.01,2013-06-25 14:33:00,
2013-06-25 08:34:00,60.3,32.5,29.85,SSW,201,5.4,6.3,35,0.00,,---,0.00,VWS V14.01,2013-06-25 14:34:00,
2013-06-25 08:35:00,60.3,32.5,29.85,SSW,206,7.6,7.6,35,0.00,,---,0.00,VWS V14.01,2013-06-25 14:35:00,
2013-06-25 08:36:00,60.3,32.5,29.85,SSW,205,5.8,8.3,35,0.00,,---,0.00,VWS V14.01,2013-06-25 14:36:00,
2013-06-25 08:38:00,60.3,32.5,29.85,South,187,5.4,8.3,35,0.00,,---,0.00,VWS V14.01,2013-06-25 14:38:00,
2013-06-25 08:39:00,60.3,32.5,29.85,South,191,4.9,8.3,35,0.00,,---,0.00,VWS V14.01,2013-06-25 14:39:00,
2013-06-25 08:40:00,60.4,32.7,29.85,SSW,193,6.3,8.3,35,0.00,,---,0.00,VWS V14.01,2013-06-25 14:40:00,
2013-06-25 08:42:00,60.4,32.7,29.85,SSW,193,8.1,9.6,35,0.00,,---,0.00,VWS V14.01,2013-06-25 14:42:00,
2013-06-25 08:44:00,60.4,32.7,29.85,South,178,8.3,9.6,35,0.00,,---,0.00,VWS V14.01,2013-06-25 14:44:00,
2013-06-25 08:45:00,60.4,32.7,29.85,WNW,284,4.0,5.8,35,0.00,,---,0.00,VWS V14.01,2013-06-25 14:45:00,
2013-06-25 08:47:00,60.4,32.7,29.85,SSW,206,3.6,5.8,35,0.00,,---,0.00,VWS V14.01,2013-06-25 14:47:00,
2013-06-25 08:49:00,60.4,32.7,29.85,South,187,3.6,7.6,35,0.00,,---,0.00,VWS V14.01,2013-06-25 14:49:00,
2013-06-25 08:50:00,60.4,33.4,29.85,WSW,242,2.7,7.6,36,0.00,,---,0.00,VWS V14.01,2013-06-25 14:50:00,
2013-06-25 08:52:00,60.4,33.4,29.85,West,260,0.0,7.6,36,0.00,,---,0.00,VWS V14.01,2013-06-25 14:52:00,
2013-06-25 08:54:00,60.6,33.5,29.85,West,260,0.0,7.6,36,0.00,,---,0.00,VWS V14.01,2013-06-25 14:54:00,
2013-06-25 08:55:00,60.6,33.5,29.85,West,260,0.0,7.6,36,0.00,,---,0.00,VWS V14.01,2013-06-25 14:55:00,
2013-06-25 08:57:00,60.6,33.5,29.85,ENE,67,3.6,7.6,36,0.00,,---,0.00,VWS V14.01,2013-06-25 14:57:00,
2013-06-25 08:59:00,60.6,33.5,29.85,North,3,4.0,7.6,36,0.00,,---,0.00,VWS V14.01,2013-06-25 14:59:00,
2013-06-25 09:01:00,60.1,38.1,29.85,North,357,5.4,6.3,44,0.00,,---,0.00,VWS V14.01,2013-06-25 15:01:00,
2013-06-25 09:02:00,59.5,38.2,29.85,North,357,3.1,6.3,45,0.00,,---,0.00,VWS V14.01,2013-06-25 15:02:00,
2013-06-25 09:04:00,59.2,38.4,29.85,North,6,2.7,6.3,46,0.00,,---,0.00,VWS V14.01,2013-06-25 15:04:00,
2013-06-25 09:05:00,59.2,38.4,29.85,North,6,2.2,6.3,46,0.00,,---,0.00,VWS V14.01,2013-06-25 15:05:00,
2013-06-25 09:06:00,58.6,38.5,29.85,North,6,2.2,6.3,47,0.00,,---,0.00,VWS V14.01,2013-06-25 15:06:00,
2013-06-25 09:07:00,58.5,38.3,29.85,North,357,3.6,6.3,47,0.00,,---,0.00,VWS V14.01,2013-06-25 15:07:00,
2013-06-25 09:09:00,58.3,39.2,29.85,North,2,2.7,6.3,49,0.00,,---,0.00,VWS V14.01,2013-06-25 15:09:00,
2013-06-25 09:10:00,58.1,39.1,29.85,North,2,0.0,6.3,49,0.00,,---,0.00,VWS V14.01,2013-06-25 15:10:00,
2013-06-25 09:12:00,58.1,39.1,29.85,North,2,2.2,6.3,49,0.00,,---,0.00,VWS V14.01,2013-06-25 15:12:00,
2013-06-25 09:14:00,57.9,38.9,29.85,North,353,3.1,6.3,49,0.00,,---,0.00,VWS V14.01,2013-06-25 15:14:00,
2013-06-25 09:15:00,57.7,38.7,29.85,North,353,0.0,3.1,49,0.00,,---,0.00,VWS V14.01,2013-06-25 15:15:00,
2013-06-25 09:17:00,57.6,39.1,29.85,North,353,0.0,3.1,50,0.00,,---,0.00,VWS V14.01,2013-06-25 15:17:00,
2013-06-25 09:18:00,57.6,39.1,29.85,North,353,0.0,3.1,50,0.00,,---,0.00,VWS V14.01,2013-06-25 15:18:00,
2013-06-25 09:20:00,57.6,39.6,29.85,North,353,0.0,3.1,51,0.00,,---,0.00,VWS V14.01,2013-06-25 15:20:00,
2013-06-25 09:21:00,57.6,39.6,29.85,North,353,0.0,3.1,51,0.00,,---,0.00,VWS V14.01,2013-06-25 15:21:00,
2013-06-25 09:22:00,57.6,39.6,29.85,North,353,0.0,3.1,51,0.00,,---,0.00,VWS V14.01,2013-06-25 15:22:00,
2013-06-25 09:24:00,57.6,39.6,29.85,North,0,2.2,3.1,51,0.00,,---,0.00,VWS V14.01,2013-06-25 15:24:00,
2013-06-25 09:25:00,57.6,40.6,29.85,North,0,2.7,4.0,53,0.00,,---,0.00,VWS V14.01,2013-06-25 15:25:00,
2013-06-25 09:26:00,57.6,41.1,29.85,NNE,18,3.1,4.0,54,0.00,,---,0.00,VWS V14.01,2013-06-25 15:26:00,
2013-06-25 09:28:00,57.4,42.3,29.85,NNE,12,3.1,4.0,57,0.00,,---,0.00,VWS V14.01,2013-06-25 15:28:00,
2013-06-25 09:29:00,57.2,43.0,29.85,NE,47,2.7,4.0,59,0.00,,---,0.00,VWS V14.01,2013-06-25 15:29:00,
2013-06-25 09:30:00,57.0,43.3,29.85,NNE,22,2.2,3.6,60,0.00,,---,0.00,VWS V14.01,2013-06-25 15:30:00,
2013-06-25 09:31:00,56.8,43.5,29.85,North,11,4.0,4.9,61,0.00,,---,0.00,VWS V14.01,2013-06-25 15:31:00,
2013-06-25 09:33:00,56.8,43.5,29.85,NNE,12,3.1,4.9,61,0.00,,---,0.00,VWS V14.01,2013-06-25 15:33:00,
2013-06-25 09:34:00,56.7,43.8,29.85,NNE,12,2.2,4.9,62,0.00,,---,0.00,VWS V14.01,2013-06-25 15:34:00,
2013-06-25 09:35:00,56.5,44.0,29.85,NNE,30,0.0,4.9,63,0.00,,---,0.00,VWS V14.01,2013-06-25 15:35:00,
2013-06-25 09:36:00,56.5,44.5,29.85,ENE,78,2.7,4.9,64,0.00,,---,0.00,VWS V14.01,2013-06-25 15:36:00,
2013-06-25 09:38:00,56.5,44.5,29.85,ENE,73,0.0,4.9,64,0.00,,---,0.00,VWS V14.01,2013-06-25 15:38:00,
2013-06-25 09:39:00,56.5,44.5,29.85,ENE,61,0.0,4.9,64,0.00,,---,0.00,VWS V14.01,2013-06-25 15:39:00,
2013-06-25 09:41:00,56.5,44.0,29.85,ENE,76,0.0,4.9,63,0.00,,---,0.00,VWS V14.01,2013-06-25 15:41:00,
2013-06-25 09:42:00,56.5,43.6,29.85,ENE,76,0.0,4.9,62,0.00,,---,0.00,VWS V14.01,2013-06-25 15:42:00,
2013-06-25 09:43:00,56.5,43.6,29.85,ENE,71,0.0,4.9,62,0.00,,---,0.00,VWS V14.01,2013-06-25 15:43:00,
2013-06-25 09:44:00,56.7,43.4,29.85,ENE,72,2.7,4.9,61,0.00,,---,0.00,VWS V14.01,2013-06-25 15:44:00,
2013-06-25 09:46:00,56.7,43.4,29.85,East,100,2.2,2.7,61,0.00,,---,0.00,VWS V14.01,2013-06-25 15:46:00,
2013-06-25 09:47:00,56.8,43.5,29.85,ESE,112,3.1,4.0,61,0.00,,---,0.00,VWS V14.01,2013-06-25 15:47:00,
2013-06-25 09:48:00,57.0,43.7,29.85,ESE,103,0.0,4.0,61,0.00,,---,0.00,VWS V14.01,2013-06-25 15:48:00,
2013-06-25 09:50:00,57.2,43.0,29.85,ESE,106,0.0,4.0,59,0.00,,---,0.00,VWS V14.01,2013-06-25 15:50:00,
2013-06-25 09:51:00,57.6,42.9,29.85,East,97,0.0,4.0,58,0.00,,---,0.00,VWS V14.01,2013-06-25 15:51:00,
2013-06-25 09:52:00,57.9,43.2,29.85,ESE,119,2.2,4.0,58,0.00,,---,0.00,VWS V14.01,2013-06-25 15:52:00,
2013-06-25 09:53:00,58.5,43.8,29.85,North,7,5.4,5.4,58,0.00,,---,0.00,VWS V14.01,2013-06-25 15:53:00,
2013-06-25 09:55:00,59.5,42.9,29.85,East,95,3.1,5.4,54,0.00,,---,0.00,VWS V14.01,2013-06-25 15:55:00,
2013-06-25 09:56:00,60.1,41.9,29.85,East,96,3.6,5.4,51,0.00,,---,0.00,VWS V14.01,2013-06-25 15:56:00,
2013-06-25 09:57:00,60.8,42.1,29.85,ESE,105,2.7,5.4,50,0.00,,---,0.00,VWS V14.01,2013-06-25 15:57:00,
2013-06-25 09:58:00,61.3,42.6,29.85,ESE,110,4.9,5.4,50,0.00,,---,0.00,VWS V14.01,2013-06-25 15:58:00,
2013-06-25 10:00:00,62.2,41.2,29.85,NNE,21,2.7,3.1,46,0.00,,---,0.00,VWS V14.01,2013-06-25 16:00:00,
2013-06-25 10:01:00,62.2,40.7,29.85,NNW,344,2.2,4.9,45,0.00,,---,0.00,VWS V14.01,2013-06-25 16:01:00,
2013-06-25 10:03:00,62.2,41.2,29.85,NNW,344,0.0,4.9,46,0.00,,---,0.00,VWS V14.01,2013-06-25 16:03:00,
2013-06-25 10:06:00,61.9,40.3,29.85,North,4,4.9,4.9,45,0.00,,---,0.00,VWS V14.01,2013-06-25 16:06:00,
2013-06-25 10:07:00,61.9,39.8,29.85,NNE,17,2.2,5.8,44,0.00,,---,0.00,VWS V14.01,2013-06-25 16:07:00,
2013-06-25 10:08:00,61.9,40.3,29.85,North,8,2.2,5.8,45,0.00,,---,0.00,VWS V14.01,2013-06-25 16:08:00,
2013-06-25 10:09:00,61.9,40.3,29.85,WNW,285,3.6,5.8,45,0.00,,---,0.00,VWS V14.01,2013-06-25 16:09:00,
2013-06-25 10:11:00,62.4,40.2,29.85,NNE,13,4.0,5.8,44,0.00,,---,0.00,VWS V14.01,2013-06-25 16:11:00,
2013-06-25 10:12:00,62.2,40.7,29.85,North,357,3.1,5.8,45,0.00,,---,0.00,VWS V14.01,2013-06-25 16:12:00,
2013-06-25 10:13:00,62.1,39.9,29.85,North,7,3.6,5.8,44,0.00,,---,0.00,VWS V14.01,2013-06-25 16:13:00,
2013-06-25 10:14:00,61.9,39.2,29.85,NNE,14,3.1,5.8,43,0.00,,---,0.00,VWS V14.01,2013-06-25 16:14:00,
2013-06-25 10:16:00,61.3,39.3,29.85,NNE,14,0.0,0.0,44,0.00,,---,0.00,VWS V14.01,2013-06-25 16:16:00,
2013-06-25 10:17:00,61.2,39.1,29.85,NNE,14,2.2,2.2,44,0.00,,---,0.00,VWS V14.01,2013-06-25 16:17:00,
2013-06-25 10:18:00,61.2,39.1,29.85,ESE,122,2.7,3.1,44,0.00,,---,0.00,VWS V14.01,2013-06-25 16:18:00,
2013-06-25 10:19:00,61.2,39.1,29.85,SE,140,3.1,3.1,44,0.00,,---,0.00,VWS V14.01,2013-06-25 16:19:00,
2013-06-25 10:21:00,61.7,40.2,29.85,ESE,113,3.6,3.6,45,0.00,,---,0.00,VWS V14.01,2013-06-25 16:21:00,
2013-06-25 10:22:00,62.1,39.9,29.85,ENE,65,0.0,3.6,44,0.00,,---,0.00,VWS V14.01,2013-06-25 16:22:00,
2013-06-25 10:24:00,62.6,39.8,29.85,ESE,109,3.6,3.6,43,0.00,,---,0.00,VWS V14.01,2013-06-25 16:24:00,
2013-06-25 10:25:00,62.6,39.2,29.85,East,93,2.7,3.6,42,0.00,,---,0.00,VWS V14.01,2013-06-25 16:25:00,
2013-06-25 10:26:00,62.8,39.4,29.85,ESE,105,0.0,3.6,42,0.00,,---,0.00,VWS V14.01,2013-06-25 16:26:00,
2013-06-25 10:27:00,63.0,39.5,29.85,ESE,105,0.0,3.6,42,0.00,,---,0.00,VWS V14.01,2013-06-25 16:27:00,
2013-06-25 10:29:00,63.7,39.6,29.85,East,97,0.0,4.0,41,0.00,,---,0.00,VWS V14.01,2013-06-25 16:29:00,
2013-06-25 10:30:00,64.2,39.4,29.85,South,185,2.7,4.0,40,0.00,,---,0.00,VWS V14.01,2013-06-25 16:30:00,
2013-06-25 10:31:00,64.9,38.8,29.85,South,191,2.2,4.0,38,0.00,,---,0.00,VWS V14.01,2013-06-25 16:31:00,
2013-06-25 10:32:00,65.1,39.6,29.85,SE,131,3.1,4.0,39,0.00,,---,0.00,VWS V14.01,2013-06-25 16:32:00,
2013-06-25 10:34:00,65.5,39.2,29.85,SE,129,0.0,4.0,38,0.00,,---,0.00,VWS V14.01,2013-06-25 16:34:00,
2013-06-25 10:35:00,65.5,39.2,29.85,SE,131,0.0,4.0,38,0.00,,---,0.00,VWS V14.01,2013-06-25 16:35:00,
2013-06-25 10:36:00,65.3,38.4,29.85,SE,131,0.0,4.0,37,0.00,,---,0.00,VWS V14.01,2013-06-25 16:36:00,
2013-06-25 10:37:00,65.1,38.9,29.85,North,357,2.7,4.0,38,0.00,,---,0.00,VWS V14.01,2013-06-25 16:37:00,
2013-06-25 10:39:00,64.6,38.4,29.85,NNE,24,3.1,4.0,38,0.00,,---,0.00,VWS V14.01,2013-06-25 16:39:00,
2013-06-25 10:40:00,64.2,38.1,29.85,North,8,2.7,4.0,38,0.00,,---,0.00,VWS V14.01,2013-06-25 16:40:00,
2013-06-25 10:41:00,63.9,37.8,29.85,North,5,3.1,4.0,38,0.00,,---,0.00,VWS V14.01,2013-06-25 16:41:00,
2013-06-25 10:43:00,63.1,37.1,29.85,North,4,2.2,4.0,38,0.00,,---,0.00,VWS V14.01,2013-06-25 16:43:00,
2013-06-25 10:44:00,62.6,37.3,29.85,North,4,3.6,4.0,39,0.00,,---,0.00,VWS V14.01,2013-06-25 16:44:00,
2013-06-25 10:45:00,62.2,37.0,29.85,NNE,33,0.0,3.1,39,0.00,,---,0.00,VWS V14.01,2013-06-25 16:45:00,
2013-06-25 10:46:00,62.2,37.0,29.85,North,4,2.7,3.1,39,0.00,,---,0.00,VWS V14.01,2013-06-25 16:46:00,
2013-06-25 10:47:00,62.1,36.8,29.85,North,0,3.1,4.0,39,0.00,,---,0.00,VWS V14.01,2013-06-25 16:47:00,
2013-06-25 10:48:00,61.9,37.3,29.85,NW,317,2.7,4.0,40,0.00,,---,0.00,VWS V14.01,2013-06-25 16:48:00,
2013-06-25 10:49:00,61.5,37.0,29.85,NW,317,2.7,4.0,40,0.00,,---,0.00,VWS V14.01,2013-06-25 16:49:00,
2013-06-25 10:50:00,61.3,37.5,29.85,NE,34,2.7,4.0,41,0.00,,---,0.00,VWS V14.01,2013-06-25 16:50:00,
2013-06-25 10:51:00,61.2,37.3,29.85,NE,34,0.0,4.0,41,0.00,,---,0.00,VWS V14.01,2013-06-25 16:51:00,
2013-06-25 10:52:00,61.2,37.3,29.85,NE,34,2.2,4.0,41,0.00,,---,0.00,VWS V14.01,2013-06-25 16:52:00,
2013-06-25 10:53:00,61.2,37.9,29.85,NE,34,2.2,4.0,42,0.00,,---,0.00,VWS V14.01,2013-06-25 16:53:00,
2013-06-25 10:54:00,61.2,38.5,29.85,East,99,3.1,4.0,43,0.00,,---,0.00,VWS V14.01,2013-06-25 16:54:00,
2013-06-25 10:56:00,61.5,38.8,29.85,East,101,2.2,4.0,43,0.00,,---,0.00,VWS V14.01,2013-06-25 16:56:00,
2013-06-25 10:57:00,61.5,38.8,29.85,ESE,105,2.2,4.0,43,0.00,,---,0.00,VWS V14.01,2013-06-25 16:57:00,
2013-06-25 10:58:00,62.2,39.5,29.85,ESE,104,2.7,4.0,43,0.00,,---,0.00,VWS V14.01,2013-06-25 16:58:00,
2013-06-25 10:59:00,62.8,38.8,29.85,ESE,105,2.7,4.0,41,0.00,,---,0.00,VWS V14.01,2013-06-25 16:59:00,
2013-06-25 11:01:00,62.8,38.1,29.85,NNE,18,2.7,3.1,40,0.00,,---,0.00,VWS V14.01,2013-06-25 17:01:00,
2013-06-25 11:02:00,63.0,38.3,29.85,NNE,19,2.7,3.1,40,0.00,,---,0.00,VWS V14.01,2013-06-25 17:02:00,
2013-06-25 11:04:00,63.0,38.3,29.85,ESE,115,2.7,3.6,40,0.00,,---,0.00,VWS V14.01,2013-06-25 17:04:00,
2013-06-25 11:05:00,63.0,38.3,29.85,SE,125,0.0,3.6,40,0.00,,---,0.00,VWS V14.01,2013-06-25 17:05:00,
2013-06-25 11:06:00,63.1,38.5,29.85,SE,125,2.2,3.6,40,0.00,,---,0.00,VWS V14.01,2013-06-25 17:06:00,
2013-06-25 11:07:00,63.3,38.6,29.85,SE,124,2.2,3.6,40,0.00,,---,0.00,VWS V14.01,2013-06-25 17:07:00,
2013-06-25 11:09:00,64.0,39.9,29.85,NNE,17,3.1,3.6,41,0.00,,---,0.00,VWS V14.01,2013-06-25 17:09:00,
2013-06-25 11:10:00,64.0,38.6,29.85,North,11,2.7,4.0,39,0.00,,---,0.00,VWS V14.01,2013-06-25 17:10:00,
2013-06-25 11:11:00,64.0,37.9,29.85,North,3,2.2,4.0,38,0.00,,---,0.00,VWS V14.01,2013-06-25 17:11:00,
2013-06-25 11:12:00,64.0,37.9,29.85,North,3,2.2,4.0,38,0.00,,---,0.00,VWS V14.01,2013-06-25 17:12:00,
2013-06-25 11:14:00,64.2,38.1,29.85,ESE,116,3.1,4.0,38,0.00,,---,0.00,VWS V14.01,2013-06-25 17:14:00,
2013-06-25 11:15:00,64.4,38.3,29.85,SSE,159,3.1,4.0,38,0.00,,---,0.00,VWS V14.01,2013-06-25 17:15:00,
2013-06-25 11:17:00,65.1,38.9,29.85,ESE,122,4.0,5.8,38,0.00,,---,0.00,VWS V14.01,2013-06-25 17:17:00,
2013-06-25 11:19:00,65.7,38.0,29.85,ESE,118,3.6,5.8,36,0.00,,---,0.00,VWS V14.01,2013-06-25 17:19:00,
2013-06-25 11:20:00,65.7,38.0,29.85,ENE,68,3.6,5.8,36,0.00,,---,0.00,VWS V14.01,2013-06-25 17:20:00,
2013-06-25 11:22:00,65.8,38.2,29.85,ESE,108,4.5,5.8,36,0.00,,---,0.00,VWS V14.01,2013-06-25 17:22:00,
2013-06-25 11:23:00,65.8,37.5,29.85,ESE,103,4.9,5.8,35,0.00,,---,0.00,VWS V14.01,2013-06-25 17:23:00,
2013-06-25 11:24:00,66.0,37.6,29.85,ESE,120,4.0,5.8,35,0.00,,---,0.00,VWS V14.01,2013-06-25 17:24:00,
2013-06-25 11:25:00,66.2,37.8,29.85,ESE,119,2.2,5.8,35,0.00,,---,0.00,VWS V14.01,2013-06-25 17:25:00,
2013-06-25 11:27:00,66.6,38.1,29.85,SE,131,3.1,5.8,35,0.00,,---,0.00,VWS V14.01,2013-06-25 17:27:00,
2013-06-25 11:28:00,66.6,38.1,29.85,ESE,107,3.6,5.8,35,0.00,,---,0.00,VWS V14.01,2013-06-25 17:28:00,
2013-06-25 11:29:00,66.7,38.2,29.85,ESE,110,2.2,5.8,35,0.00,,---,0.00,VWS V14.01,2013-06-25 17:29:00,
2013-06-25 11:30:00,66.7,38.2,29.85,ESE,110,2.7,5.8,35,0.00,,---,0.00,VWS V14.01,2013-06-25 17:30:00,
2013-06-25 11:32:00,66.9,38.4,29.85,North,5,0.0,3.1,35,0.00,,---,0.00,VWS V14.01,2013-06-25 17:32:00,
2013-06-25 11:33:00,67.1,37.8,29.85,NE,53,2.2,3.1,34,0.00,,---,0.00,VWS V14.01,2013-06-25 17:33:00,
2013-06-25 11:34:00,67.3,38.0,29.85,NE,53,0.0,3.1,34,0.00,,---,0.00,VWS V14.01,2013-06-25 17:34:00,
2013-06-25 11:35:00,67.3,38.0,29.85,NE,35,3.1,3.1,34,0.00,,---,0.00,VWS V14.01,2013-06-25 17:35:00,
2013-06-25 11:37:00,67.3,37.2,29.85,North,11,2.7,4.9,33,0.00,,---,0.00,VWS V14.01,2013-06-25 17:37:00,
2013-06-25 11:38:00,66.9,37.7,29.85,ESE,103,4.0,4.9,34,0.00,,---,0.00,VWS V14.01,2013-06-25 17:38:00,
2013-06-25 11:39:00,66.9,37.7,29.85,ESE,103,3.6,4.9,34,0.00,,---,0.00,VWS V14.01,2013-06-25 17:39:00,
2013-06-25 11:41:00,67.1,37.8,29.85,East,100,2.7,4.9,34,0.00,,---,0.00,VWS V14.01,2013-06-25 17:41:00,
2013-06-25 11:42:00,67.1,37.1,29.85,NNE,18,3.1,4.9,33,0.00,,---,0.00,VWS V14.01,2013-06-25 17:42:00,
2013-06-25 11:44:00,66.9,36.9,29.85,NE,48,0.0,4.9,33,0.00,,---,0.00,VWS V14.01,2013-06-25 17:44:00,
2013-06-25 11:46:00,66.6,37.3,29.85,NNW,341,5.8,6.3,34,0.00,,---,0.00,VWS V14.01,2013-06-25 17:46:00,
2013-06-25 11:47:00,66.4,36.4,29.85,NNE,12,5.4,6.3,33,0.00,,---,0.00,VWS V14.01,2013-06-25 17:47:00,
2013-06-25 11:48:00,66.2,36.3,29.85,North,357,5.8,6.3,33,0.00,,---,0.00,VWS V14.01,2013-06-25 17:48:00,
2013-06-25 11:49:00,66.2,36.3,29.85,NW,306,3.1,6.3,33,0.00,,---,0.00,VWS V14.01,2013-06-25 17:49:00,
2013-06-25 11:50:00,66.2,36.3,29.85,NW,312,0.0,6.3,33,0.00,,---,0.00,VWS V14.01,2013-06-25 17:50:00,
2013-06-25 11:51:00,66.2,36.3,29.85,NW,325,2.7,6.3,33,0.00,,---,0.00,VWS V14.01,2013-06-25 17:51:00,
2013-06-25 11:52:00,66.2,36.3,29.85,North,353,2.2,6.3,33,0.00,,---,0.00,VWS V14.01,2013-06-25 17:52:00,
2013-06-25 11:54:00,66.6,35.0,29.85,NW,315,3.6,6.3,31,0.00,,---,0.00,VWS V14.01,2013-06-25 17:54:00,
2013-06-25 11:55:00,66.6,34.2,29.85,NW,307,3.1,6.3,30,0.00,,---,0.00,VWS V14.01,2013-06-25 17:55:00,
2013-06-25 11:56:00,66.6,34.2,29.85,WNW,298,2.2,6.3,30,0.00,,---,0.00,VWS V14.01,2013-06-25 17:56:00,
2013-06-25 11:58:00,66.7,31.7,29.85,SSW,203,0.0,6.3,27,0.00,,---,0.00,VWS V14.01,2013-06-25 17:58:00,
2013-06-25 11:59:00,66.9,31.9,29.85,SSW,203,0.0,6.3,27,0.00,,---,0.00,VWS V14.01,2013-06-25 17:59:00,
2013-06-25 12:01:00,66.9,30.0,29.85,SSE,156,2.7,5.4,25,0.00,,---,0.00,VWS V14.01,2013-06-25 18:01:00,
2013-06-25 12:03:00,66.7,29.8,29.85,WSW,253,3.6,5.4,25,0.00,,---,0.00,VWS V14.01,2013-06-25 18:03:00,
2013-06-25 12:04:00,66.7,30.8,29.85,West,274,4.0,5.4,26,0.00,,---,0.00,VWS V14.01,2013-06-25 18:04:00,
2013-06-25 12:06:00,66.6,30.6,29.85,SW,236,3.1,5.4,26,0.00,,---,0.00,VWS V14.01,2013-06-25 18:06:00,
2013-06-25 12:07:00,66.4,32.3,29.85,NW,307,0.0,5.4,28,0.00,,---,0.00,VWS V14.01,2013-06-25 18:07:00,
2013-06-25 12:08:00,66.2,31.3,29.85,North,0,3.6,5.4,27,0.00,,---,0.00,VWS V14.01,2013-06-25 18:08:00,
2013-06-25 12:09:00,66.0,31.1,29.85,NW,317,3.1,5.4,27,0.00,,---,0.00,VWS V14.01,2013-06-25 18:09:00,
2013-06-25 12:10:00,66.0,31.1,29.85,North,353,3.6,5.4,27,0.00,,---,0.00,VWS V14.01,2013-06-25 18:10:00,
2013-06-25 12:11:00,65.5,29.7,29.85,North,0,2.7,5.4,26,0.00,,---,0.00,VWS V14.01,2013-06-25 18:11:00,
2013-06-25 12:12:00,65.3,30.5,29.85,North,0,2.7,5.4,27,0.00,,---,0.00,VWS V14.01,2013-06-25 18:12:00,
2013-06-25 12:13:00,65.1,30.3,29.85,NNW,340,0.0,5.4,27,0.00,,---,0.00,VWS V14.01,2013-06-25 18:13:00,
2013-06-25 12:14:00,64.9,30.2,29.85,NNW,333,2.2,5.4,27,0.00,,---,0.00,VWS V14.01,2013-06-25 18:14:00,
2013-06-25 12:15:00,64.9,30.2,29.85,NNW,333,2.2,5.4,27,0.00,,---,0.00,VWS V14.01,2013-06-25 18:15:00,
2013-06-25 12:16:00,65.1,30.3,29.85,NNW,333,0.0,2.2,27,0.00,,---,0.00,VWS V14.01,2013-06-25 18:16:00,
2013-06-25 12:18:00,65.1,30.3,29.85,North,357,5.4,5.4,27,0.00,,---,0.00,VWS V14.01,2013-06-25 18:18:00,
2013-06-25 12:19:00,65.3,30.5,29.85,NNW,345,3.1,5.4,27,0.00,,---,0.00,VWS V14.01,2013-06-25 18:19:00,
2013-06-25 12:20:00,65.3,32.3,29.85,NNW,346,3.6,5.4,29,0.00,,---,0.00,VWS V14.01,2013-06-25 18:20:00,
2013-06-25 12:21:00,65.3,30.5,29.85,North,6,2.7,5.4,27,0.00,,---,0.00,VWS V14.01,2013-06-25 18:21:00,
2013-06-25 12:23:00,65.1,31.2,29.85,North,5,0.0,5.4,28,0.00,,---,0.00,VWS V14.01,2013-06-25 18:23:00,
2013-06-25 12:24:00,65.1,32.1,29.85,North,5,0.0,5.4,29,0.00,,---,0.00,VWS V14.01,2013-06-25 18:24:00,
2013-06-25 12:25:00,65.1,32.9,29.85,NNW,343,0.0,5.4,30,0.00,,---,0.00,VWS V14.01,2013-06-25 18:25:00,
2013-06-25 12:26:00,65.1,33.8,29.85,NNW,335,2.2,5.4,31,0.00,,---,0.00,VWS V14.01,2013-06-25 18:26:00,
2013-06-25 12:28:00,65.1,31.2,29.85,NNW,327,0.0,5.4,28,0.00,,---,0.00,VWS V14.01,2013-06-25 18:28:00,
2013-06-25 12:29:00,65.3,30.5,29.85,NNW,330,0.0,5.4,27,0.00,,---,0.00,VWS V14.01,2013-06-25 18:29:00,
2013-06-25 12:30:00,65.3,30.5,29.85,NNE,19,0.0,0.0,27,0.00,,---,0.00,VWS V14.01,2013-06-25 18:30:00,
2013-06-25 12:31:00,65.5,30.6,29.85,NW,324,2.7,2.7,27,0.00,,---,0.00,VWS V14.01,2013-06-25 18:31:00,
2013-06-25 12:32:00,65.5,30.6,29.85,NW,324,2.2,3.1,27,0.00,,---,0.00,VWS V14.01,2013-06-25 18:32:00,
2013-06-25 12:33:00,65.5,30.6,29.85,NW,324,2.2,3.1,27,0.00,,---,0.00,VWS V14.01,2013-06-25 18:33:00,
2013-06-25 12:34:00,65.5,30.6,29.85,NW,324,0.0,3.1,27,0.00,,---,0.00,VWS V14.01,2013-06-25 18:34:00,
2013-06-25 12:35:00,65.5,30.6,29.85,NW,324,0.0,3.1,27,0.00,,---,0.00,VWS V14.01,2013-06-25 18:35:00,
2013-06-25 12:36:00,65.5,30.6,29.85,NW,324,0.0,3.1,27,0.00,,---,0.00,VWS V14.01,2013-06-25 18:36:00,
2013-06-25 12:37:00,65.5,30.6,29.85,NW,324,0.0,3.1,27,0.00,,---,0.00,VWS V14.01,2013-06-25 18:37:00,
2013-06-25 12:38:00,65.5,31.5,29.85,NW,324,2.7,3.1,28,0.00,,---,0.00,VWS V14.01,2013-06-25 18:38:00,
2013-06-25 12:39:00,65.5,32.4,29.85,North,8,3.6,3.6,29,0.00,,---,0.00,VWS V14.01,2013-06-25 18:39:00,
2013-06-25 12:41:00,65.7,32.6,29.85,North,5,3.1,3.6,29,0.00,,---,0.00,VWS V14.01,2013-06-25 18:41:00,
2013-06-25 12:42:00,65.7,32.6,29.85,North,11,2.2,3.6,29,0.00,,---,0.00,VWS V14.01,2013-06-25 18:42:00,
2013-06-25 12:43:00,65.8,33.6,29.85,NE,34,4.0,4.0,30,0.00,,---,0.00,VWS V14.01,2013-06-25 18:43:00,
2013-06-25 12:44:00,65.8,32.7,29.85,East,81,2.7,4.0,29,0.00,,---,0.00,VWS V14.01,2013-06-25 18:44:00,
2013-06-25 12:46:00,66.2,32.2,29.85,North,0,4.0,5.4,28,0.00,,---,0.00,VWS V14.01,2013-06-25 18:46:00,
2013-06-25 12:47:00,66.2,32.2,29.85,North,0,4.0,5.4,28,0.00,,---,0.00,VWS V14.01,2013-06-25 18:47:00,
2013-06-25 12:48:00,66.2,31.3,29.85,North,0,3.1,5.4,27,0.00,,---,0.00,VWS V14.01,2013-06-25 18:48:00,
2013-06-25 12:50:00,66.0,33.7,29.85,NE,44,3.1,5.4,30,0.00,,---,0.00,VWS V14.01,2013-06-25 18:50:00,
2013-06-25 12:51:00,65.8,35.2,29.85,North,6,4.9,5.4,32,0.00,,---,0.00,VWS V14.01,2013-06-25 18:51:00,
2013-06-25 12:52:00,65.7,34.2,29.85,North,6,4.0,5.4,31,0.00,,---,0.00,VWS V14.01,2013-06-25 18:52:00,
2013-06-25 12:53:00,65.7,35.0,29.85,NNE,30,3.1,5.4,32,0.00,,---,0.00,VWS V14.01,2013-06-25 18:53:00,
2013-06-25 12:55:00,65.1,34.6,29.85,NNE,13,3.6,5.4,32,0.00,,---,0.00,VWS V14.01,2013-06-25 18:55:00,
2013-06-25 12:56:00,64.8,34.2,29.85,North,3,4.0,5.4,32,0.00,,---,0.00,VWS V14.01,2013-06-25 18:56:00,
2013-06-25 12:57:00,64.8,34.2,29.85,North,2,4.0,5.4,32,0.00,,---,0.00,VWS V14.01,2013-06-25 18:57:00,
2013-06-25 12:58:00,64.4,33.9,29.85,North,1,3.6,5.4,32,0.00,,---,0.00,VWS V14.01,2013-06-25 18:58:00,
2013-06-25 13:00:00,64.2,33.8,29.85,North,1,0.0,5.4,32,0.00,,---,0.00,VWS V14.01,2013-06-25 19:00:00,
2013-06-25 13:02:00,64.2,34.5,29.85,North,8,0.0,4.0,33,0.00,,---,0.00,VWS V14.01,2013-06-25 19:02:00,
2013-06-25 13:03:00,64.2,35.3,29.85,ENE,73,0.0,4.0,34,0.00,,---,0.00,VWS V14.01,2013-06-25 19:03:00,
2013-06-25 13:05:00,64.4,34.7,29.85,North,2,2.2,4.0,33,0.00,,---,0.00,VWS V14.01,2013-06-25 19:05:00,
2013-06-25 13:07:00,64.8,35.0,29.85,North,7,2.2,4.9,33,0.00,,---,0.00,VWS V14.01,2013-06-25 19:07:00,
2013-06-25 13:08:00,64.9,35.2,29.85,North,6,3.1,4.9,33,0.00,,---,0.00,VWS V14.01,2013-06-25 19:08:00,
2013-06-25 13:09:00,64.9,35.2,29.85,NE,51,2.2,4.9,33,0.00,,---,0.00,VWS V14.01,2013-06-25 19:09:00,
2013-06-25 13:10:00,65.5,35.6,29.85,East,100,4.9,4.9,33,0.00,,---,0.00,VWS V14.01,2013-06-25 19:10:00,
2013-06-25 13:12:00,66.0,35.3,29.85,ESE,105,3.6,4.9,32,0.00,,---,0.00,VWS V14.01,2013-06-25 19:12:00,
2013-06-25 13:13:00,66.4,34.9,29.85,ESE,122,2.2,4.9,31,0.00,,---,0.00,VWS V14.01,2013-06-25 19:13:00,
2013-06-25 13:14:00,66.6,35.8,29.85,ESE,111,0.0,4.9,32,0.00,,---,0.00,VWS V14.01,2013-06-25 19:14:00,
2013-06-25 13:16:00,67.1,37.1,29.85,East,85,2.7,2.7,33,0.00,,---,0.00,VWS V14.01,2013-06-25 19:16:00,
2013-06-25 13:18:00,68.0,35.4,29.85,East,98,5.8,5.8,30,0.00,,---,0.00,VWS V14.01,2013-06-25 19:18:00,
2013-06-25 13:19:00,68.2,33.9,29.85,ESE,118,4.9,5.8,28,0.00,,---,0.00,VWS V14.01,2013-06-25 19:19:00,
2013-06-25 13:21:00,68.4,34.9,29.85,ESE,118,2.2,5.8,29,0.00,,---,0.00,VWS V14.01,2013-06-25 19:21:00,
2013-06-25 13:23:00,68.5,33.3,29.85,NE,36,0.0,5.8,27,0.00,,---,0.00,VWS V14.01,2013-06-25 19:23:00,
2013-06-25 13:24:00,68.4,33.1,29.85,SE,128,3.1,5.8,27,0.00,,---,0.00,VWS V14.01,2013-06-25 19:24:00,
2013-06-25 13:26:00,68.4,34.0,29.85,North,353,2.7,5.8,28,0.00,,---,0.00,VWS V14.01,2013-06-25 19:26:00,
2013-06-25 13:28:00,68.2,34.7,29.85,NNE,18,3.6,5.8,29,0.00,,---,0.00,VWS V14.01,2013-06-25 19:28:00,
2013-06-25 13:29:00,68.2,34.7,29.85,North,357,4.5,5.8,29,0.00,,---,0.00,VWS V14.01,2013-06-25 19:29:00,
2013-06-25 13:30:00,68.0,32.8,29.85,North,353,3.6,5.8,27,0.00,,---,0.00,VWS V14.01,2013-06-25 19:30:00,
2013-06-25 13:31:00,67.8,33.5,29.85,North,357,0.0,3.6,28,0.00,,---,0.00,VWS V14.01,2013-06-25 19:31:00,
2013-06-25 13:34:00,67.6,34.3,29.82,East,84,0.0,4.0,29,0.00,,---,0.00,VWS V14.01,2013-06-25 19:34:00,
2013-06-25 13:35:00,67.8,35.3,29.82,East,87,0.0,4.0,30,0.00,,---,0.00,VWS V14.01,2013-06-25 19:35:00,
2013-06-25 13:36:00,68.0,34.6,29.82,SE,132,2.7,4.0,29,0.00,,---,0.00,VWS V14.01,2013-06-25 19:36:00,
2013-06-25 13:39:00,68.5,34.2,29.82,ESE,111,3.6,5.8,28,0.00,,---,0.00,VWS V14.01,2013-06-25 19:39:00,
2013-06-25 13:40:00,68.7,34.3,29.82,SE,132,4.0,5.8,28,0.00,,---,0.00,VWS V14.01,2013-06-25 19:40:00,
2013-06-25 13:41:00,68.7,33.4,29.82,ESE,106,4.0,6.3,27,0.00,,---,0.00,VWS V14.01,2013-06-25 19:41:00,
2013-06-25 13:44:00,68.7,34.3,29.82,SSE,165,2.2,6.3,28,0.00,,---,0.00,VWS V14.01,2013-06-25 19:44:00,
2013-06-25 13:45:00,68.7,34.3,29.82,SSE,165,2.2,6.3,28,0.00,,---,0.00,VWS V14.01,2013-06-25 19:45:00,
2013-06-25 13:46:00,68.7,34.3,29.82,ESE,107,3.1,3.1,28,0.00,,---,0.00,VWS V14.01,2013-06-25 19:46:00,
2013-06-25 13:49:00,68.5,33.3,29.85,East,101,3.1,3.1,27,0.00,,---,0.00,VWS V14.01,2013-06-25 19:49:00,
2013-06-25 13:50:00,68.5,33.3,29.85,East,100,4.9,4.9,27,0.00,,---,0.00,VWS V14.01,2013-06-25 19:50:00,
2013-06-25 13:53:00,68.0,32.8,29.85,SE,130,3.6,5.4,27,0.00,,---,0.00,VWS V14.01,2013-06-25 19:53:00,
2013-06-25 13:55:00,67.8,32.7,29.85,ESE,109,2.7,5.4,27,0.00,,---,0.00,VWS V14.01,2013-06-25 19:55:00,
2013-06-25 13:56:00,67.6,33.4,29.85,East,100,4.0,5.4,28,0.00,,---,0.00,VWS V14.01,2013-06-25 19:56:00,
2013-06-25 13:58:00,67.3,32.2,29.85,ESE,102,3.1,5.8,27,0.00,,---,0.00,VWS V14.01,2013-06-25 19:58:00,
2013-06-25 14:00:00,67.1,32.0,29.85,ESE,102,2.2,2.2,27,0.00,,---,0.00,VWS V14.01,2013-06-25 20:00:00,
2013-06-25 14:01:00,67.1,32.0,29.85,ESE,102,0.0,2.2,27,0.00,,---,0.00,VWS V14.01,2013-06-25 20:01:00,
2013-06-25 14:04:00,66.9,32.8,29.85,NNE,12,3.6,4.0,28,0.00,,---,0.00,VWS V14.01,2013-06-25 20:04:00,
2013-06-25 14:05:00,66.7,32.6,29.85,North,6,5.4,5.4,28,0.00,,---,0.00,VWS V14.01,2013-06-25 20:05:00,
2013-06-25 14:06:00,66.7,33.5,29.85,NNE,16,4.0,5.4,29,0.00,,---,0.00,VWS V14.01,2013-06-25 20:06:00,
2013-06-25 14:09:00,66.4,34.9,29.85,North,10,2.7,5.8,31,0.00,,---,0.00,VWS V14.01,2013-06-25 20:09:00,
2013-06-25 14:11:00,66.4,34.9,29.85,North,357,3.1,5.8,31,0.00,,---,0.00,VWS V14.01,2013-06-25 20:11:00,
2013-06-25 14:14:00,66.4,34.0,29.85,North,0,5.4,5.8,30,0.00,,---,0.00,VWS V14.01,2013-06-25 20:14:00,
2013-06-25 14:16:00,66.6,33.3,29.85,NNE,20,3.6,3.6,29,0.00,,---,0.00,VWS V14.01,2013-06-25 20:16:00,
2013-06-25 14:19:00,66.9,34.5,29.85,NE,35,2.7,4.0,30,0.00,,---,0.00,VWS V14.01,2013-06-25 20:19:00,
2013-06-25 14:21:00,66.9,34.5,29.85,NE,37,2.2,4.0,30,0.00,,---,0.00,VWS V14.01,2013-06-25 20:21:00,
2013-06-25 14:22:00,66.9,33.7,29.85,NE,47,0.0,4.0,29,0.00,,---,0.00,VWS V14.01,2013-06-25 20:22:00,
2013-06-25 14:25:00,66.9,33.7,29.85,North,3,0.0,4.0,29,0.00,,---,0.00,VWS V14.01,2013-06-25 20:25:00,
2013-06-25 14:26:00,67.1,34.7,29.85,North,0,0.0,4.0,30,0.00,,---,0.00,VWS V14.01,2013-06-25 20:26:00,
2013-06-25 14:27:00,67.1,35.5,29.85,North,357,2.7,4.0,31,0.00,,---,0.00,VWS V14.01,2013-06-25 20:27:00,
2013-06-25 14:30:00,67.3,34.0,29.85,NNE,28,4.0,5.8,29,0.00,,---,0.00,VWS V14.01,2013-06-25 20:30:00,
2013-06-25 14:31:00,67.5,35.0,29.85,NNE,18,4.5,5.4,30,0.00,,---,0.00,VWS V14.01,2013-06-25 20:31:00,
2013-06-25 14:32:00,67.5,35.0,29.85,NNE,33,4.0,5.4,30,0.00,,---,0.00,VWS V14.01,2013-06-25 20:32:00,
2013-06-25 14:35:00,67.6,36.0,29.85,NE,56,2.2,6.3,31,0.00,,---,0.00,VWS V14.01,2013-06-25 20:35:00,
2013-06-25 14:36:00,68.2,34.7,29.85,SE,125,2.7,6.3,29,0.00,,---,0.00,VWS V14.01,2013-06-25 20:36:00,
2013-06-25 14:37:00,68.2,34.7,29.85,NNE,22,3.6,6.3,29,0.00,,---,0.00,VWS V14.01,2013-06-25 20:37:00,
2013-06-25 14:40:00,68.4,31.2,29.85,NE,51,4.0,8.3,25,0.00,,---,0.00,VWS V14.01,2013-06-25 20:40:00,
2013-06-25 14:42:00,68.5,32.3,29.85,North,5,3.6,8.3,26,0.00,,---,0.00,VWS V14.01,2013-06-25 20:42:00,
2013-06-25 14:43:00,68.5,32.3,29.85,North,8,0.0,8.3,26,0.00,,---,0.00,VWS V14.01,2013-06-25 20:43:00,
2013-06-25 14:45:00,68.9,32.6,29.85,NE,54,0.0,0.0,26,0.00,,---,0.00,VWS V14.01,2013-06-25 20:45:00,
2013-06-25 14:47:00,68.9,33.6,29.85,North,11,3.6,3.6,27,0.00,,---,0.00,VWS V14.01,2013-06-25 20:47:00,
2013-06-25 14:48:00,68.9,33.6,29.85,North,11,4.0,4.0,27,0.00,,---,0.00,VWS V14.01,2013-06-25 20:48:00,
2013-06-25 14:50:00,68.5,33.3,29.85,NE,56,4.0,5.8,27,0.00,,---,0.00,VWS V14.01,2013-06-25 20:50:00,
2013-06-25 14:52:00,68.2,33.0,29.85,North,0,2.7,5.8,27,0.00,,---,0.00,VWS V14.01,2013-06-25 20:52:00,
2013-06-25 14:53:00,68.2,33.0,29.85,North,0,3.6,5.8,27,0.00,,---,0.00,VWS V14.01,2013-06-25 20:53:00,
2013-06-25 14:56:00,67.8,32.7,29.85,North,0,4.0,5.8,27,0.00,,---,0.00,VWS V14.01,2013-06-25 20:56:00,
2013-06-25 14:57:00,67.8,32.7,29.85,North,9,4.0,5.8,27,0.00,,---,0.00,VWS V14.01,2013-06-25 20:57:00,
2013-06-25 14:58:00,67.8,32.7,29.85,North,11,2.2,5.8,27,0.00,,---,0.00,VWS V14.01,2013-06-25 20:58:00,
2013-06-25 14:59:00,68.0,32.8,29.85,North,11,2.2,5.8,27,0.00,,---,0.00,VWS V14.01,2013-06-25 20:59:00,
2013-06-25 15:01:00,68.0,32.8,29.85,North,8,6.3,6.3,27,0.00,,---,0.00,VWS V14.01,2013-06-25 21:01:00,
2013-06-25 15:02:00,67.8,31.7,29.85,North,9,4.0,6.3,26,0.00,,---,0.00,VWS V14.01,2013-06-25 21:02:00,
2013-06-25 15:03:00,67.8,31.7,29.85,North,0,3.1,6.3,26,0.00,,---,0.00,VWS V14.01,2013-06-25 21:03:00,
2013-06-25 15:05:00,67.6,31.6,29.85,NNW,346,4.0,6.3,26,0.00,,---,0.00,VWS V14.01,2013-06-25 21:05:00,
2013-06-25 15:06:00,67.5,32.3,29.85,NNE,14,4.0,6.3,27,0.00,,---,0.00,VWS V14.01,2013-06-25 21:06:00,
2013-06-25 15:08:00,67.3,31.2,29.85,North,0,3.1,6.3,26,0.00,,---,0.00,VWS V14.01,2013-06-25 21:08:00,
2013-06-25 15:09:00,67.3,31.2,29.85,North,0,3.1,6.3,26,0.00,,---,0.00,VWS V14.01,2013-06-25 21:09:00,
2013-06-25 15:10:00,67.3,31.2,29.85,North,0,3.1,6.3,26,0.00,,---,0.00,VWS V14.01,2013-06-25 21:10:00,
2013-06-25 15:11:00,67.5,32.3,29.85,NNE,16,3.6,6.3,27,0.00,,---,0.00,VWS V14.01,2013-06-25 21:11:00,
2013-06-25 15:13:00,67.6,32.5,29.85,NNE,14,4.9,6.3,27,0.00,,---,0.00,VWS V14.01,2013-06-25 21:13:00,
2013-06-25 15:14:00,67.6,32.5,29.85,North,9,4.0,6.3,27,0.00,,---,0.00,VWS V14.01,2013-06-25 21:14:00,
2013-06-25 15:15:00,67.8,33.5,29.85,NNE,25,2.7,6.3,28,0.00,,---,0.00,VWS V14.01,2013-06-25 21:15:00,
2013-06-25 15:16:00,68.2,33.0,29.85,North,2,3.1,4.0,27,0.00,,---,0.00,VWS V14.01,2013-06-25 21:16:00,
2013-06-25 15:19:00,68.5,31.4,29.85,NNE,12,2.7,6.3,25,0.00,,---,0.00,VWS V14.01,2013-06-25 21:19:00,
2013-06-25 15:20:00,68.5,31.4,29.85,East,82,2.7,6.3,25,0.00,,---,0.00,VWS V14.01,2013-06-25 21:20:00,
2013-06-25 15:21:00,68.7,31.5,29.85,SE,129,3.6,6.3,25,0.00,,---,0.00,VWS V14.01,2013-06-25 21:21:00,
2013-06-25 15:24:00,68.9,31.7,29.85,ENE,75,3.1,6.3,25,0.00,,---,0.00,VWS V14.01,2013-06-25 21:24:00,
2013-06-25 15:25:00,69.1,31.8,29.85,NE,55,3.6,6.3,25,0.00,,---,0.00,VWS V14.01,2013-06-25 21:25:00,
2013-06-25 15:27:00,69.3,32.0,29.85,NE,43,2.7,6.3,25,0.00,,---,0.00,VWS V14.01,2013-06-25 21:27:00,
2013-06-25 15:29:00,69.4,33.1,29.85,NNE,12,3.1,6.3,26,0.00,,---,0.00,VWS V14.01,2013-06-25 21:29:00,
2013-06-25 15:30:00,69.8,33.4,29.85,SE,128,4.0,4.0,26,0.00,,---,0.00,VWS V14.01,2013-06-25 21:30:00,
2013-06-25 15:32:00,70.0,32.6,29.85,SE,131,2.2,5.8,25,0.00,,---,0.00,VWS V14.01,2013-06-25 21:32:00,
2013-06-25 15:34:00,70.3,32.9,29.82,East,86,4.0,5.8,25,0.00,,---,0.00,VWS V14.01,2013-06-25 21:34:00,
2013-06-25 15:35:00,70.3,32.9,29.82,ESE,108,3.1,5.8,25,0.00,,---,0.00,VWS V14.01,2013-06-25 21:35:00,
2013-06-25 15:37:00,70.7,32.2,29.82,SSE,159,2.2,5.8,24,0.00,,---,0.00,VWS V14.01,2013-06-25 21:37:00,
2013-06-25 15:39:00,70.9,32.3,29.82,North,7,5.8,5.8,24,0.00,,---,0.00,VWS V14.01,2013-06-25 21:39:00,
2013-06-25 15:40:00,70.5,32.0,29.82,North,353,6.3,7.6,24,0.00,,---,0.00,VWS V14.01,2013-06-25 21:40:00,
2013-06-25 15:41:00,70.3,31.9,29.82,NNE,25,7.6,7.6,24,0.00,,---,0.00,VWS V14.01,2013-06-25 21:41:00,
2013-06-25 15:42:00,70.2,31.7,29.82,NNE,30,6.3,7.6,24,0.00,,---,0.00,VWS V14.01,2013-06-25 21:42:00,
2013-06-25 15:44:00,70.0,32.6,29.82,North,10,4.0,7.6,25,0.00,,---,0.00,VWS V14.01,2013-06-25 21:44:00,
2013-06-25 15:45:00,69.8,31.4,29.82,North,357,4.0,7.6,24,0.00,,---,0.00,VWS V14.01,2013-06-25 21:45:00,
2013-06-25 15:46:00,69.8,32.4,29.82,North,0,3.6,4.9,25,0.00,,---,0.00,VWS V14.01,2013-06-25 21:46:00,
2013-06-25 15:48:00,69.6,32.3,29.82,North,353,3.6,4.9,25,0.00,,---,0.00,VWS V14.01,2013-06-25 21:48:00,
2013-06-25 15:50:00,69.8,32.4,29.82,North,2,2.7,6.3,25,0.00,,---,0.00,VWS V14.01,2013-06-25 21:50:00,
2013-06-25 15:51:00,69.8,32.4,29.82,North,2,4.0,6.3,25,0.00,,---,0.00,VWS V14.01,2013-06-25 21:51:00,
2013-06-25 15:52:00,69.8,32.4,29.82,East,98,2.7,6.3,25,0.00,,---,0.00,VWS V14.01,2013-06-25 21:52:00,
2013-06-25 15:53:00,69.8,31.4,29.82,ESE,106,3.6,6.3,24,0.00,,---,0.00,VWS V14.01,2013-06-25 21:53:00,
2013-06-25 15:55:00,70.3,32.9,29.82,North,9,8.3,8.3,25,0.00,,---,0.00,VWS V14.01,2013-06-25 21:55:00,
2013-06-25 15:56:00,70.5,33.0,29.82,North,1,5.8,8.3,25,0.00,,---,0.00,VWS V14.01,2013-06-25 21:56:00,
2013-06-25 15:57:00,70.5,32.0,29.82,NNW,329,6.3,8.3,24,0.00,,---,0.00,VWS V14.01,2013-06-25 21:57:00,
2013-06-25 15:58:00,70.7,33.2,29.82,NNW,328,3.1,8.3,25,0.00,,---,0.00,VWS V14.01,2013-06-25 21:58:00,
2013-06-25 16:01:00,70.7,32.2,29.82,NE,35,4.0,5.8,24,0.00,,---,0.00,VWS V14.01,2013-06-25 22:01:00,
2013-06-25 16:02:00,70.9,32.3,29.82,NNE,26,4.0,5.8,24,0.00,,---,0.00,VWS V14.01,2013-06-25 22:02:00,
2013-06-25 16:03:00,70.9,32.3,29.82,NE,39,3.6,5.8,24,0.00,,---,0.00,VWS V14.01,2013-06-25 22:03:00,
2013-06-25 16:06:00,71.2,31.6,29.82,NNE,17,2.2,5.8,23,0.00,,---,0.00,VWS V14.01,2013-06-25 22:06:00,
2013-06-25 16:07:00,71.4,31.7,29.82,NNE,32,2.2,5.8,23,0.00,,---,0.00,VWS V14.01,2013-06-25 22:07:00,
2013-06-25 16:08:00,71.6,30.8,29.82,ESE,103,4.0,5.8,22,0.00,,---,0.00,VWS V14.01,2013-06-25 22:08:00,
2013-06-25 16:11:00,72.0,31.1,29.82,South,191,4.5,5.8,22,0.00,,---,0.00,VWS V14.01,2013-06-25 22:11:00,
2013-06-25 16:12:00,72.0,31.1,29.82,South,191,4.5,5.8,22,0.00,,---,0.00,VWS V14.01,2013-06-25 22:12:00,
2013-06-25 16:13:00,72.5,31.5,29.82,WNW,295,3.6,5.8,22,0.00,,---,0.00,VWS V14.01,2013-06-25 22:13:00,
2013-06-25 16:16:00,73.2,32.1,29.82,SSW,210,2.2,4.0,22,0.00,,---,0.00,VWS V14.01,2013-06-25 22:16:00,
2013-06-25 16:17:00,73.2,32.1,29.82,South,187,2.7,4.0,22,0.00,,---,0.00,VWS V14.01,2013-06-25 22:17:00,
2013-06-25 16:19:00,73.8,27.6,29.82,SSW,207,4.0,4.0,18,0.00,,---,0.00,VWS V14.01,2013-06-25 22:19:00,
2013-06-25 16:22:00,74.3,28.1,29.82,SW,232,8.3,8.7,18,0.00,,---,0.00,VWS V14.01,2013-06-25 22:22:00,
2013-06-25 16:23:00,74.5,28.2,29.82,SSW,208,5.4,8.7,18,0.00,,---,0.00,VWS V14.01,2013-06-25 22:23:00,
2013-06-25 16:24:00,74.5,28.2,29.82,SSW,197,6.3,8.7,18,0.00,,---,0.00,VWS V14.01,2013-06-25 22:24:00,
2013-06-25 16:27:00,74.8,28.5,29.82,West,268,2.7,8.7,18,0.00,,---,0.00,VWS V14.01,2013-06-25 22:27:00,
2013-06-25 16:28:00,74.8,25.7,29.82,WSW,256,5.8,8.7,16,0.00,,---,0.00,VWS V14.01,2013-06-25 22:28:00,
2013-06-25 16:29:00,74.8,25.7,29.82,South,189,5.4,8.7,16,0.00,,---,0.00,VWS V14.01,2013-06-25 22:29:00,
2013-06-25 16:32:00,75.0,20.9,29.82,SSW,207,6.3,8.1,13,0.00,,---,0.00,VWS V14.01,2013-06-25 22:32:00,
2013-06-25 16:33:00,74.8,20.7,29.82,West,279,5.4,8.1,13,0.00,,---,0.00,VWS V14.01,2013-06-25 22:33:00,
2013-06-25 16:34:00,74.8,20.7,29.82,SW,214,5.8,8.3,13,0.00,,---,0.00,VWS V14.01,2013-06-25 22:34:00,
2013-06-25 16:37:00,74.5,20.5,29.82,SSW,197,3.1,9.2,13,0.00,,---,0.00,VWS V14.01,2013-06-25 22:37:00,
2013-06-25 16:38:00,74.5,20.5,29.82,SSW,199,4.0,9.2,13,0.00,,---,0.00,VWS V14.01,2013-06-25 22:38:00,
2013-06-25 16:40:00,74.1,20.2,29.82,SW,219,5.4,9.2,13,0.00,,---,0.00,VWS V14.01,2013-06-25 22:40:00,
2013-06-25 16:42:00,74.1,20.2,29.82,South,187,4.0,9.2,13,0.00,,---,0.00,VWS V14.01,2013-06-25 22:42:00,
2013-06-25 16:43:00,74.1,20.2,29.82,SW,216,2.7,9.2,13,0.00,,---,0.00,VWS V14.01,2013-06-25 22:43:00,
2013-06-25 16:44:00,74.1,20.2,29.82,South,191,7.6,9.2,13,0.00,,---,0.00,VWS V14.01,2013-06-25 22:44:00,
2013-06-25 16:46:00,74.1,20.2,29.82,WSW,238,6.3,6.3,13,0.00,,---,0.00,VWS V14.01,2013-06-25 22:46:00,
2013-06-25 16:47:00,74.1,20.2,29.82,SW,222,5.8,6.3,13,0.00,,---,0.00,VWS V14.01,2013-06-25 22:47:00,
2013-06-25 16:48:00,74.3,20.3,29.82,SW,222,5.4,8.3,13,0.00,,---,0.00,VWS V14.01,2013-06-25 22:48:00,
2013-06-25 16:50:00,74.3,20.3,29.82,SSW,202,5.4,8.3,13,0.00,,---,0.00,VWS V14.01,2013-06-25 22:50:00,
2013-06-25 16:51:00,74.3,20.3,29.82,SSW,200,8.3,8.3,13,0.00,,---,0.00,VWS V14.01,2013-06-25 22:51:00,
2013-06-25 16:53:00,74.1,20.2,29.82,SSW,196,4.0,8.3,13,0.00,,---,0.00,VWS V14.01,2013-06-25 22:53:00,
2013-06-25 16:54:00,74.1,20.2,29.82,WSW,242,5.4,8.3,13,0.00,,---,0.00,VWS V14.01,2013-06-25 22:54:00,
2013-06-25 16:55:00,74.3,20.3,29.82,West,275,4.0,8.3,13,0.00,,---,0.00,VWS V14.01,2013-06-25 22:55:00,
2013-06-25 16:56:00,74.3,20.3,29.82,SSW,205,6.3,8.3,13,0.00,,---,0.00,VWS V14.01,2013-06-25 22:56:00,
2013-06-25 16:58:00,74.3,16.4,29.82,SSW,207,7.6,9.6,11,0.00,,---,0.00,VWS V14.01,2013-06-25 22:58:00,
2013-06-25 16:59:00,74.3,16.4,29.82,SSW,201,6.3,9.6,11,0.00,,---,0.00,VWS V14.01,2013-06-25 22:59:00,
2013-06-25 17:00:00,74.1,16.3,29.82,SSW,197,5.8,9.6,11,0.00,,---,0.00,VWS V14.01,2013-06-25 23:00:00,
2013-06-25 17:01:00,74.1,16.3,29.82,SSW,211,3.1,5.8,11,0.00,,---,0.00,VWS V14.01,2013-06-25 23:01:00,
2013-06-25 17:03:00,73.9,20.0,29.82,WNW,296,5.8,5.8,13,0.00,,---,0.00,VWS V14.01,2013-06-25 23:03:00,
2013-06-25 17:04:00,73.9,20.0,29.82,SSW,192,5.4,7.2,13,0.00,,---,0.00,VWS V14.01,2013-06-25 23:04:00,
2013-06-25 17:05:00,73.8,19.9,29.82,WSW,257,4.0,7.2,13,0.00,,---,0.00,VWS V14.01,2013-06-25 23:05:00,
2013-06-25 17:07:00,73.6,15.9,29.82,SSW,201,5.8,7.2,11,0.00,,---,0.00,VWS V14.01,2013-06-25 23:07:00,
2013-06-25 17:08:00,73.4,15.7,29.82,SSW,203,10.5,10.5,11,0.00,,---,0.00,VWS V14.01,2013-06-25 23:08:00,
2013-06-25 17:09:00,73.2,15.6,29.82,SSW,198,7.2,10.5,11,0.00,,---,0.00,VWS V14.01,2013-06-25 23:09:00,
2013-06-25 17:11:00,72.9,15.3,29.82,SSW,192,6.3,10.5,11,0.00,,---,0.00,VWS V14.01,2013-06-25 23:11:00,
2013-06-25 17:12:00,72.5,20.6,29.82,SW,216,4.0,10.5,14,0.00,,---,0.00,VWS V14.01,2013-06-25 23:12:00,
2013-06-25 17:13:00,72.3,20.5,29.82,WSW,247,2.7,10.5,14,0.00,,---,0.00,VWS V14.01,2013-06-25 23:13:00,
2013-06-25 17:14:00,72.3,20.5,29.82,WSW,250,3.6,10.5,14,0.00,,---,0.00,VWS V14.01,2013-06-25 23:14:00,
2013-06-25 17:16:00,72.0,20.2,29.82,WSW,238,4.0,4.9,14,0.00,,---,0.00,VWS V14.01,2013-06-25 23:16:00,
2013-06-25 17:18:00,71.8,20.1,29.85,WSW,240,3.1,5.4,14,0.00,,---,0.00,VWS V14.01,2013-06-25 23:18:00,
2013-06-25 17:19:00,71.8,20.1,29.85,SSW,205,4.0,6.3,14,0.00,,---,0.00,VWS V14.01,2013-06-25 23:19:00,
2013-06-25 17:21:00,71.6,19.9,29.85,SSW,212,4.0,6.3,14,0.00,,---,0.00,VWS V14.01,2013-06-25 23:21:00,
2013-06-25 17:23:00,71.8,20.1,29.85,SSW,203,3.6,6.3,14,0.00,,---,0.00,VWS V14.01,2013-06-25 23:23:00,
2013-06-25 17:25:00,71.8,20.1,29.85,South,190,5.4,8.3,14,0.00,,---,0.00,VWS V14.01,2013-06-25 23:25:00,
2013-06-25 17:27:00,72.0,20.2,29.85,SSW,200,8.1,8.7,14,0.00,,---,0.00,VWS V14.01,2013-06-25 23:27:00,
2013-06-25 17:28:00,72.0,20.2,29.85,South,191,9.2,9.2,14,0.00,,---,0.00,VWS V14.01,2013-06-25 23:28:00,
2013-06-25 17:30:00,72.0,20.2,29.85,SSW,203,6.3,6.3,14,0.00,,---,0.00,VWS V14.01,2013-06-25 23:30:00,
2013-06-25 17:32:00,71.8,20.1,29.85,SSW,202,6.3,8.1,14,0.00,,---,0.00,VWS V14.01,2013-06-25 23:32:00,
2013-06-25 17:33:00,71.8,20.1,29.85,SW,228,4.0,8.1,14,0.00,,---,0.00,VWS V14.01,2013-06-25 23:33:00,
2013-06-25 17:35:00,71.8,20.1,29.85,West,271,3.1,8.1,14,0.00,,---,0.00,VWS V14.01,2013-06-25 23:35:00,
2013-06-25 17:37:00,71.6,19.9,29.85,South,180,5.8,8.1,14,0.00,,---,0.00,VWS V14.01,2013-06-25 23:37:00,
2013-06-25 17:38:00,71.6,19.9,29.85,SSW,199,4.0,8.1,14,0.00,,---,0.00,VWS V14.01,2013-06-25 23:38:00,
2013-06-25 17:39:00,71.6,19.9,29.85,SSW,207,6.3,8.1,14,0.00,,---,0.00,VWS V14.01,2013-06-25 23:39:00,
2013-06-25 17:40:00,71.4,19.8,29.85,SSW,201,4.9,8.1,14,0.00,,---,0.00,VWS V14.01,2013-06-25 23:40:00,
2013-06-25 17:41:00,71.2,19.6,29.85,SW,227,6.3,8.1,14,0.00,,---,0.00,VWS V14.01,2013-06-25 23:41:00,
2013-06-25 17:42:00,71.2,19.6,29.85,SSW,197,6.3,8.1,14,0.00,,---,0.00,VWS V14.01,2013-06-25 23:42:00,
2013-06-25 17:43:00,70.9,19.4,29.85,SW,218,5.8,10.1,14,0.00,,---,0.00,VWS V14.01,2013-06-25 23:43:00,
2013-06-25 17:44:00,70.7,23.8,29.85,SW,216,8.7,11.9,17,0.00,,---,0.00,VWS V14.01,2013-06-25 23:44:00,
2013-06-25 17:45:00,70.3,23.5,29.85,SW,219,8.3,13.2,17,0.00,,---,0.00,VWS V14.01,2013-06-25 23:45:00,
2013-06-25 17:46:00,70.2,23.4,29.85,SSW,200,7.6,13.2,17,0.00,,---,0.00,VWS V14.01,2013-06-25 23:46:00,
2013-06-25 17:47:00,69.8,23.1,29.85,SSW,202,12.8,14.5,17,0.00,,---,0.00,VWS V14.01,2013-06-25 23:47:00,
2013-06-25 17:48:00,69.4,22.8,29.85,South,181,8.7,14.5,17,0.00,,---,0.00,VWS V14.01,2013-06-25 23:48:00,
2013-06-25 17:50:00,69.3,22.6,29.85,South,187,5.4,14.5,17,0.00,,---,0.00,VWS V14.01,2013-06-25 23:50:00,
2013-06-25 17:51:00,69.3,26.5,29.85,West,276,8.3,14.5,20,0.00,,---,0.00,VWS V14.01,2013-06-25 23:51:00,
2013-06-25 17:52:00,69.1,26.4,29.85,SW,229,7.6,14.5,20,0.00,,---,0.00,VWS V14.01,2013-06-25 23:52:00,
2013-06-25 17:54:00,68.9,26.2,29.85,South,189,12.3,14.5,20,0.00,,---,0.00,VWS V14.01,2013-06-25 23:54:00,
2013-06-25 17:55:00,68.9,26.2,29.85,SSW,195,6.3,14.5,20,0.00,,---,0.00,VWS V14.01,2013-06-25 23:55:00,
2013-06-25 17:56:00,68.9,26.2,29.85,WSW,240,5.8,14.5,20,0.00,,---,0.00,VWS V14.01,2013-06-25 23:56:00,
2013-06-25 17:57:00,68.9,26.2,29.85,SW,217,5.4,14.5,20,0.00,,---,0.00,VWS V14.01,2013-06-25 23:57:00,
2013-06-25 17:59:00,68.9,26.2,29.85,SSW,195,8.7,14.5,20,0.00,,---,0.00,VWS V14.01,2013-06-25 23:59:00,
2013-06-25 18:00:00,68.9,26.2,29.85,SW,233,5.8,5.8,20,0.00,,---,0.00,VWS V14.01,2013-06-26 00:00:00,
2013-06-25 18:01:00,68.9,26.2,29.85,South,188,8.1,8.1,20,0.00,,---,0.00,VWS V14.01,2013-06-26 00:01:00,
2013-06-25 18:02:00,68.9,26.2,29.85,SSW,198,8.7,8.7,20,0.00,,---,0.00,VWS V14.01,2013-06-26 00:02:00,
2013-06-25 18:03:00,68.7,26.1,29.85,SW,219,8.1,10.5,20,0.00,,---,0.00,VWS V14.01,2013-06-26 00:03:00,
2013-06-25 18:04:00,68.7,26.1,29.85,SSW,210,10.1,10.5,20,0.00,,---,0.00,VWS V14.01,2013-06-26 00:04:00,
2013-06-25 18:05:00,68.7,26.1,29.85,SSW,202,6.3,10.5,20,0.00,,---,0.00,VWS V14.01,2013-06-26 00:05:00,
2013-06-25 18:06:00,68.5,25.9,29.85,SW,218,5.8,10.5,20,0.00,,---,0.00,VWS V14.01,2013-06-26 00:06:00,
2013-06-25 18:07:00,68.5,25.9,29.85,SSW,206,4.9,10.5,20,0.00,,---,0.00,VWS V14.01,2013-06-26 00:07:00,
2013-06-25 18:08:00,68.5,25.9,29.85,SSW,211,8.7,10.5,20,0.00,,---,0.00,VWS V14.01,2013-06-26 00:08:00,
2013-06-25 18:09:00,68.5,25.9,29.85,WSW,248,4.9,10.5,20,0.00,,---,0.00,VWS V14.01,2013-06-26 00:09:00,
2013-06-25 18:10:00,68.5,25.9,29.85,SSW,198,5.4,10.5,20,0.00,,---,0.00,VWS V14.01,2013-06-26 00:10:00,
2013-06-25 18:11:00,68.5,25.9,29.85,SSW,209,8.1,10.5,20,0.00,,---,0.00,VWS V14.01,2013-06-26 00:11:00,
2013-06-25 18:12:00,68.5,25.9,29.85,SSW,205,6.3,10.5,20,0.00,,---,0.00,VWS V14.01,2013-06-26 00:12:00,
2013-06-25 18:13:00,68.4,25.8,29.85,SW,220,5.4,10.5,20,0.00,,---,0.00,VWS V14.01,2013-06-26 00:13:00,
2013-06-25 18:15:00,68.4,28.1,29.85,SW,222,5.4,10.5,22,0.00,,---,0.00,VWS V14.01,2013-06-26 00:15:00,
2013-06-25 18:16:00,68.4,28.1,29.85,SSW,213,3.6,6.3,22,0.00,,---,0.00,VWS V14.01,2013-06-26 00:16:00,
2013-06-25 18:17:00,68.4,28.1,29.85,SSW,203,3.1,6.3,22,0.00,,---,0.00,VWS V14.01,2013-06-26 00:17:00,
2013-06-25 18:18:00,68.4,25.8,29.85,SSW,201,5.4,6.3,20,0.00,,---,0.00,VWS V14.01,2013-06-26 00:18:00,
2013-06-25 18:20:00,68.4,28.1,29.85,SSW,212,6.3,6.3,22,0.00,,---,0.00,VWS V14.01,2013-06-26 00:20:00,
2013-06-25 18:21:00,68.4,28.1,29.85,SSW,202,5.8,6.3,22,0.00,,---,0.00,VWS V14.01,2013-06-26 00:21:00,
2013-06-25 18:22:00,68.4,28.1,29.85,SW,224,5.8,6.3,22,0.00,,---,0.00,VWS V14.01,2013-06-26 00:22:00,
2013-06-25 18:23:00,68.4,28.1,29.85,SSW,208,3.6,6.3,22,0.00,,---,0.00,VWS V14.01,2013-06-26 00:23:00,
2013-06-25 18:25:00,68.4,28.1,29.85,WSW,252,4.0,7.6,22,0.00,,---,0.00,VWS V14.01,2013-06-26 00:25:00,
2013-06-25 18:26:00,68.2,27.9,29.85,SSW,207,4.0,7.6,22,0.00,,---,0.00,VWS V14.01,2013-06-26 00:26:00,
2013-06-25 18:27:00,68.2,27.9,29.85,SW,230,4.0,7.6,22,0.00,,---,0.00,VWS V14.01,2013-06-26 00:27:00,
2013-06-25 18:28:00,68.2,27.9,29.85,SSW,199,5.8,8.1,22,0.00,,---,0.00,VWS V14.01,2013-06-26 00:28:00,
2013-06-25 18:30:00,68.2,27.9,29.85,WSW,258,4.0,4.0,22,0.00,,---,0.00,VWS V14.01,2013-06-26 00:30:00,
2013-06-25 18:31:00,68.2,27.9,29.85,WNW,290,4.0,4.9,22,0.00,,---,0.00,VWS V14.01,2013-06-26 00:31:00,
2013-06-25 18:32:00,68.2,27.9,29.85,SW,221,2.7,4.9,22,0.00,,---,0.00,VWS V14.01,2013-06-26 00:32:00,
2013-06-25 18:33:00,68.0,27.8,29.85,SSW,193,5.8,5.8,22,0.00,,---,0.00,VWS V14.01,2013-06-26 00:33:00,
2013-06-25 18:34:00,68.2,27.9,29.85,SSW,198,4.9,8.7,22,0.00,,---,0.00,VWS V14.01,2013-06-26 00:34:00,
2013-06-25 18:35:00,68.0,27.8,29.85,WSW,251,2.7,8.7,22,0.00,,---,0.00,VWS V14.01,2013-06-26 00:35:00,
2013-06-25 18:36:00,68.0,27.8,29.85,West,265,2.7,8.7,22,0.00,,---,0.00,VWS V14.01,2013-06-26 00:36:00,
2013-06-25 18:37:00,68.0,27.8,29.85,WSW,249,3.6,8.7,22,0.00,,---,0.00,VWS V14.01,2013-06-26 00:37:00,
2013-06-25 18:38:00,68.0,27.8,29.85,WSW,254,3.1,8.7,22,0.00,,---,0.00,VWS V14.01,2013-06-26 00:38:00,
2013-06-25 18:39:00,68.0,27.8,29.85,West,274,3.6,8.7,22,0.00,,---,0.00,VWS V14.01,2013-06-26 00:39:00,
2013-06-25 18:40:00,68.0,27.8,29.85,WSW,252,3.6,8.7,22,0.00,,---,0.00,VWS V14.01,2013-06-26 00:40:00,
2013-06-25 18:41:00,68.0,27.8,29.85,West,267,2.7,8.7,22,0.00,,---,0.00,VWS V14.01,2013-06-26 00:41:00,
2013-06-25 18:43:00,68.0,27.8,29.85,WSW,237,2.2,8.7,22,0.00,,---,0.00,VWS V14.01,2013-06-26 00:43:00,
2013-06-25 18:44:00,68.0,27.8,29.85,WSW,245,2.7,8.7,22,0.00,,---,0.00,VWS V14.01,2013-06-26 00:44:00,
2013-06-25 18:45:00,68.0,28.9,29.85,WSW,245,2.2,2.2,23,0.00,,---,0.00,VWS V14.01,2013-06-26 00:45:00,
2013-06-25 18:46:00,68.0,27.8,29.85,West,274,3.6,3.6,22,0.00,,---,0.00,VWS V14.01,2013-06-26 00:46:00,
2013-06-25 18:48:00,68.0,28.9,29.85,SW,219,4.0,4.0,23,0.00,,---,0.00,VWS V14.01,2013-06-26 00:48:00,
2013-06-25 18:49:00,68.0,28.9,29.85,SW,231,3.1,4.0,23,0.00,,---,0.00,VWS V14.01,2013-06-26 00:49:00,
2013-06-25 18:50:00,68.0,27.8,29.85,SW,225,4.0,4.9,22,0.00,,---,0.00,VWS V14.01,2013-06-26 00:50:00,
2013-06-25 18:52:00,68.0,28.9,29.85,SW,222,3.1,4.9,23,0.00,,---,0.00,VWS V14.01,2013-06-26 00:52:00,
2013-06-25 18:53:00,68.0,28.9,29.85,WSW,238,3.1,4.9,23,0.00,,---,0.00,VWS V14.01,2013-06-26 00:53:00,
2013-06-25 18:54:00,68.0,28.9,29.85,SSW,209,2.7,4.9,23,0.00,,---,0.00,VWS V14.01,2013-06-26 00:54:00,
2013-06-25 18:55:00,68.0,28.9,29.85,SSW,201,4.0,4.9,23,0.00,,---,0.00,VWS V14.01,2013-06-26 00:55:00,
2013-06-25 18:57:00,68.0,28.9,29.85,WNW,295,2.2,4.9,23,0.00,,---,0.00,VWS V14.01,2013-06-26 00:57:00,
2013-06-25 18:58:00,68.0,27.8,29.85,WSW,245,4.0,5.4,22,0.00,,---,0.00,VWS V14.01,2013-06-26 00:58:00,
2013-06-25 18:59:00,68.0,28.9,29.85,SW,229,2.7,5.4,23,0.00,,---,0.00,VWS V14.01,2013-06-26 00:59:00,
2013-06-25 19:00:00,68.0,27.8,29.85,SSW,205,5.8,8.3,22,0.00,,---,0.00,VWS V14.01,2013-06-26 01:00:00,
2013-06-25 19:01:00,68.0,27.8,29.85,SW,222,4.9,8.3,22,0.00,,---,0.00,VWS V14.01,2013-06-26 01:01:00,
2013-06-25 19:02:00,68.0,28.9,29.85,SW,229,2.2,8.3,23,0.00,,---,0.00,VWS V14.01,2013-06-26 01:02:00,
2013-06-25 19:03:00,68.0,28.9,29.85,SW,229,2.7,8.3,23,0.00,,---,0.00,VWS V14.01,2013-06-26 01:03:00,
2013-06-25 19:04:00,68.0,28.9,29.85,SW,229,0.0,8.3,23,0.00,,---,0.00,VWS V14.01,2013-06-26 01:04:00,
2013-06-25 19:05:00,68.0,28.9,29.85,SW,229,2.2,8.3,23,0.00,,---,0.00,VWS V14.01,2013-06-26 01:05:00,
2013-06-25 19:06:00,68.0,28.9,29.85,SW,236,2.7,8.3,23,0.00,,---,0.00,VWS V14.01,2013-06-26 01:06:00,
2013-06-25 19:08:00,67.8,28.7,29.85,SW,223,2.7,8.3,23,0.00,,---,0.00,VWS V14.01,2013-06-26 01:08:00,
2013-06-25 19:09:00,67.8,28.7,29.85,SW,224,2.7,8.3,23,0.00,,---,0.00,VWS V14.01,2013-06-26 01:09:00,
2013-06-25 19:10:00,67.8,28.7,29.85,SSW,211,4.0,8.3,23,0.00,,---,0.00,VWS V14.01,2013-06-26 01:10:00,
2013-06-25 19:11:00,67.8,28.7,29.85,SSW,199,3.6,8.3,23,0.00,,---,0.00,VWS V14.01,2013-06-26 01:11:00,
2013-06-25 19:13:00,67.8,28.7,29.85,SSW,199,0.0,8.3,23,0.00,,---,0.00,VWS V14.01,2013-06-26 01:13:00,
2013-06-25 19:15:00,67.8,28.7,29.85,SSW,199,2.2,8.3,23,0.00,,---,0.00,VWS V14.01,2013-06-26 01:15:00,
2013-06-25 19:16:00,68.0,28.9,29.85,SSW,199,2.2,2.7,23,0.00,,---,0.00,VWS V14.01,2013-06-26 01:16:00,
2013-06-25 19:18:00,67.8,28.7,29.85,SW,232,0.0,3.1,23,0.00,,---,0.00,VWS V14.01,2013-06-26 01:18:00,
2013-06-25 19:20:00,67.8,28.7,29.85,SSW,194,4.0,4.9,23,0.00,,---,0.00,VWS V14.01,2013-06-26 01:20:00,
2013-06-25 19:21:00,67.8,28.7,29.85,SSW,194,2.7,4.9,23,0.00,,---,0.00,VWS V14.01,2013-06-26 01:21:00,
2013-06-25 19:23:00,67.8,28.7,29.85,SSW,195,2.2,4.9,23,0.00,,---,0.00,VWS V14.01,2013-06-26 01:23:00,
2013-06-25 19:24:00,67.8,28.7,29.85,SSW,195,0.0,4.9,23,0.00,,---,0.00,VWS V14.01,2013-06-26 01:24:00,
2013-06-25 19:25:00,67.8,28.7,29.85,SSW,195,3.1,4.9,23,0.00,,---,0.00,VWS V14.01,2013-06-26 01:25:00,
2013-06-25 19:26:00,67.8,28.7,29.85,SSW,202,3.6,4.9,23,0.00,,---,0.00,VWS V14.01,2013-06-26 01:26:00,
2013-06-25 19:27:00,67.8,28.7,29.85,SSW,202,2.7,4.9,23,0.00,,---,0.00,VWS V14.01,2013-06-26 01:27:00,
2013-06-25 19:29:00,67.8,28.7,29.85,SSW,197,4.9,4.9,23,0.00,,---,0.00,VWS V14.01,2013-06-26 01:29:00,
2013-06-25 19:31:00,67.8,28.7,29.85,SSW,197,0.0,2.2,23,0.00,,---,0.00,VWS V14.01,2013-06-26 01:31:00,
2013-06-25 19:32:00,67.8,28.7,29.85,SSW,193,0.0,2.7,23,0.00,,---,0.00,VWS V14.01,2013-06-26 01:32:00,
2013-06-25 19:34:00,67.8,28.7,29.88,SSW,197,4.9,4.9,23,0.00,,---,0.00,VWS V14.01,2013-06-26 01:34:00,
2013-06-25 19:36:00,67.8,28.7,29.88,SSW,194,2.7,4.9,23,0.00,,---,0.00,VWS V14.01,2013-06-26 01:36:00,
2013-06-25 19:37:00,67.8,28.7,29.88,SSW,194,0.0,4.9,23,0.00,,---,0.00,VWS V14.01,2013-06-26 01:37:00,
2013-06-25 19:39:00,67.8,28.7,29.88,South,171,4.0,4.9,23,0.00,,---,0.00,VWS V14.01,2013-06-26 01:39:00,
2013-06-25 19:41:00,67.8,28.7,29.88,South,190,0.0,4.9,23,0.00,,---,0.00,VWS V14.01,2013-06-26 01:41:00,
2013-06-25 19:42:00,67.8,28.7,29.88,South,190,2.2,4.9,23,0.00,,---,0.00,VWS V14.01,2013-06-26 01:42:00,
2013-06-25 19:43:00,67.6,28.5,29.88,South,190,0.0,4.9,23,0.00,,---,0.00,VWS V14.01,2013-06-26 01:43:00,
2013-06-25 19:44:00,67.6,28.5,29.88,South,190,0.0,4.9,23,0.00,,---,0.00,VWS V14.01,2013-06-26 01:44:00,
2013-06-25 19:45:00,67.6,28.5,29.88,South,190,0.0,4.9,23,0.00,,---,0.00,VWS V14.01,2013-06-26 01:45:00,
2013-06-25 19:47:00,67.5,28.4,29.88,South,190,0.0,0.0,23,0.00,,---,0.00,VWS V14.01,2013-06-26 01:47:00,
2013-06-25 19:48:00,67.5,28.4,29.88,South,172,0.0,2.7,23,0.00,,---,0.00,VWS V14.01,2013-06-26 01:48:00,
2013-06-25 19:49:00,67.3,28.2,29.88,South,191,5.8,5.8,23,0.00,,---,0.00,VWS V14.01,2013-06-26 01:49:00,
2013-06-25 19:50:00,67.3,28.2,29.88,SSW,201,3.1,5.8,23,0.00,,---,0.00,VWS V14.01,2013-06-26 01:50:00,
2013-06-25 19:52:00,67.3,28.2,29.88,SSW,198,3.6,5.8,23,0.00,,---,0.00,VWS V14.01,2013-06-26 01:52:00,
2013-06-25 19:53:00,67.3,28.2,29.88,SSW,195,3.6,5.8,23,0.00,,---,0.00,VWS V14.01,2013-06-26 01:53:00,
2013-06-25 19:54:00,67.3,28.2,29.88,SSW,207,3.6,5.8,23,0.00,,---,0.00,VWS V14.01,2013-06-26 01:54:00,
2013-06-25 19:55:00,67.3,28.2,29.88,SSW,210,2.7,5.8,23,0.00,,---,0.00,VWS V14.01,2013-06-26 01:55:00,
2013-06-25 19:57:00,67.1,28.1,29.88,SSW,210,3.1,5.8,23,0.00,,---,0.00,VWS V14.01,2013-06-26 01:57:00,
2013-06-25 19:59:00,66.9,27.9,29.88,SSW,198,4.0,5.8,23,0.00,,---,0.00,VWS V14.01,2013-06-26 01:59:00,
2013-06-25 20:00:00,66.9,27.9,29.88,SSW,206,4.0,5.8,23,0.00,,---,0.00,VWS V14.01,2013-06-26 02:00:00,
2013-06-25 20:02:00,66.9,27.9,29.88,SSW,205,4.0,5.8,23,0.00,,---,0.00,VWS V14.01,2013-06-26 02:02:00,
2013-06-25 20:03:00,66.9,27.9,29.88,SSW,211,4.0,5.8,23,0.00,,---,0.00,VWS V14.01,2013-06-26 02:03:00,
2013-06-25 20:04:00,66.9,27.9,29.88,SSW,212,3.6,5.8,23,0.00,,---,0.00,VWS V14.01,2013-06-26 02:04:00,
2013-06-25 20:05:00,66.7,27.8,29.88,SSW,205,3.6,5.8,23,0.00,,---,0.00,VWS V14.01,2013-06-26 02:05:00,
2013-06-25 20:07:00,66.7,27.8,29.88,SSW,193,5.4,5.8,23,0.00,,---,0.00,VWS V14.01,2013-06-26 02:07:00,
2013-06-25 20:08:00,66.7,27.8,29.88,SSW,198,5.8,6.3,23,0.00,,---,0.00,VWS V14.01,2013-06-26 02:08:00,
2013-06-25 20:09:00,66.7,27.8,29.88,SSW,204,6.3,7.2,23,0.00,,---,0.00,VWS V14.01,2013-06-26 02:09:00,
2013-06-25 20:11:00,66.7,27.8,29.88,South,186,5.4,7.2,23,0.00,,---,0.00,VWS V14.01,2013-06-26 02:11:00,
2013-06-25 20:12:00,66.7,27.8,29.88,SSW,198,3.6,7.2,23,0.00,,---,0.00,VWS V14.01,2013-06-26 02:12:00,
2013-06-25 20:13:00,66.7,27.8,29.88,SW,220,3.1,7.2,23,0.00,,---,0.00,VWS V14.01,2013-06-26 02:13:00,
2013-06-25 20:14:00,66.7,27.8,29.88,SSW,205,3.6,7.2,23,0.00,,---,0.00,VWS V14.01,2013-06-26 02:14:00,
2013-06-25 20:15:00,66.7,27.8,29.88,SSW,205,3.6,7.2,23,0.00,,---,0.00,VWS V14.01,2013-06-26 02:15:00,
2013-06-25 20:16:00,66.6,27.6,29.88,SSW,207,7.6,7.6,23,0.00,,---,0.00,VWS V14.01,2013-06-26 02:16:00,
2013-06-25 20:17:00,66.6,27.6,29.88,SSW,207,7.6,7.6,23,0.00,,---,0.00,VWS V14.01,2013-06-26 02:17:00,
2013-06-25 20:18:00,66.6,27.6,29.88,SSW,209,4.0,7.6,23,0.00,,---,0.00,VWS V14.01,2013-06-26 02:18:00,
2013-06-25 20:19:00,66.6,27.6,29.88,SSW,200,5.8,7.6,23,0.00,,---,0.00,VWS V14.01,2013-06-26 02:19:00,
2013-06-25 20:20:00,66.4,27.5,29.88,SSW,203,5.4,7.6,23,0.00,,---,0.00,VWS V14.01,2013-06-26 02:20:00,
2013-06-25 20:21:00,66.4,27.5,29.88,SW,221,5.4,7.6,23,0.00,,---,0.00,VWS V14.01,2013-06-26 02:21:00,
2013-06-25 20:23:00,66.4,28.5,29.88,SSW,198,6.3,8.7,24,0.00,,---,0.00,VWS V14.01,2013-06-26 02:23:00,
2013-06-25 20:25:00,66.2,28.4,29.88,SSW,205,6.7,8.7,24,0.00,,---,0.00,VWS V14.01,2013-06-26 02:25:00,
2013-06-25 20:26:00,66.0,28.2,29.88,SSW,204,4.0,8.7,24,0.00,,---,0.00,VWS V14.01,2013-06-26 02:26:00,
2013-06-25 20:28:00,65.8,29.1,29.88,WSW,241,3.6,8.7,25,0.00,,---,0.00,VWS V14.01,2013-06-26 02:28:00,
2013-06-25 20:29:00,65.7,28.9,29.88,SW,234,4.0,8.7,25,0.00,,---,0.00,VWS V14.01,2013-06-26 02:29:00,
2013-06-25 20:30:00,65.5,28.8,29.88,SW,220,5.4,7.6,25,0.00,,---,0.00,VWS V14.01,2013-06-26 02:30:00,
2013-06-25 20:31:00,65.5,28.8,29.88,SW,220,5.4,7.6,25,0.00,,---,0.00,VWS V14.01,2013-06-26 02:31:00,
2013-06-25 20:33:00,65.3,28.6,29.91,SSW,209,4.9,7.6,25,0.00,,---,0.00,VWS V14.01,2013-06-26 02:33:00,
2013-06-25 20:34:00,65.1,28.5,29.91,SSW,204,4.9,7.6,25,0.00,,---,0.00,VWS V14.01,2013-06-26 02:34:00,
2013-06-25 20:36:00,64.8,28.1,29.91,SSW,202,5.8,7.6,25,0.00,,---,0.00,VWS V14.01,2013-06-26 02:36:00,
2013-06-25 20:38:00,64.8,28.1,29.91,SSW,196,5.4,7.6,25,0.00,,---,0.00,VWS V14.01,2013-06-26 02:38:00,
2013-06-25 20:39:00,64.8,28.1,29.91,SSW,201,4.0,7.6,25,0.00,,---,0.00,VWS V14.01,2013-06-26 02:39:00,
2013-06-25 20:41:00,64.6,29.0,29.91,SSW,211,6.3,7.6,26,0.00,,---,0.00,VWS V14.01,2013-06-26 02:41:00,
2013-06-25 20:43:00,64.4,28.8,29.91,SSW,193,4.0,7.6,26,0.00,,---,0.00,VWS V14.01,2013-06-26 02:43:00,
2013-06-25 20:44:00,64.4,28.8,29.91,SSW,199,3.1,7.6,26,0.00,,---,0.00,VWS V14.01,2013-06-26 02:44:00,
2013-06-25 20:46:00,64.2,29.6,29.91,SSW,202,3.6,4.9,27,0.00,,---,0.00,VWS V14.01,2013-06-26 02:46:00,
2013-06-25 20:47:00,64.2,29.6,29.91,SSW,196,5.4,5.4,27,0.00,,---,0.00,VWS V14.01,2013-06-26 02:47:00,
2013-06-25 20:48:00,64.0,29.4,29.91,SSW,196,4.0,5.4,27,0.00,,---,0.00,VWS V14.01,2013-06-26 02:48:00,
2013-06-25 20:49:00,64.0,29.4,29.91,SSW,203,3.6,5.4,27,0.00,,---,0.00,VWS V14.01,2013-06-26 02:49:00,
2013-06-25 20:51:00,64.0,29.4,29.91,South,185,5.8,5.8,27,0.00,,---,0.00,VWS V14.01,2013-06-26 02:51:00,
2013-06-25 20:52:00,64.0,29.4,29.91,SSW,196,5.4,5.8,27,0.00,,---,0.00,VWS V14.01,2013-06-26 02:52:00,
2013-06-25 20:53:00,64.0,29.4,29.91,SSW,194,5.8,5.8,27,0.00,,---,0.00,VWS V14.01,2013-06-26 02:53:00,
2013-06-25 20:54:00,64.0,29.4,29.91,SSW,206,3.6,5.8,27,0.00,,---,0.00,VWS V14.01,2013-06-26 02:54:00,
2013-06-25 20:56:00,64.0,29.4,29.91,SSW,204,2.7,5.8,27,0.00,,---,0.00,VWS V14.01,2013-06-26 02:56:00,
2013-06-25 20:57:00,63.9,30.1,29.91,SSW,206,4.0,5.8,28,0.00,,---,0.00,VWS V14.01,2013-06-26 02:57:00,
2013-06-25 20:58:00,63.9,30.1,29.91,SSW,207,2.7,5.8,28,0.00,,---,0.00,VWS V14.01,2013-06-26 02:58:00,
2013-06-25 20:59:00,63.9,30.1,29.91,SSW,207,2.7,5.8,28,0.00,,---,0.00,VWS V14.01,2013-06-26 02:59:00,
2013-06-25 21:01:00,63.7,30.0,29.91,SSW,208,3.6,4.0,28,0.00,,---,0.00,VWS V14.01,2013-06-26 03:01:00,
2013-06-25 21:02:00,63.7,30.0,29.91,SSW,206,2.7,4.0,28,0.00,,---,0.00,VWS V14.01,2013-06-26 03:02:00,
2013-06-25 21:03:00,63.7,30.0,29.91,SSW,206,2.7,4.0,28,0.00,,---,0.00,VWS V14.01,2013-06-26 03:03:00,
2013-06-25 21:04:00,63.7,30.0,29.91,SSW,208,3.6,4.0,28,0.00,,---,0.00,VWS V14.01,2013-06-26 03:04:00,
2013-06-25 21:05:00,63.7,30.0,29.91,SSW,206,3.1,4.0,28,0.00,,---,0.00,VWS V14.01,2013-06-26 03:05:00,
2013-06-25 21:06:00,63.5,29.8,29.91,SSW,194,4.9,4.9,28,0.00,,---,0.00,VWS V14.01,2013-06-26 03:06:00,
2013-06-25 21:08:00,63.5,29.8,29.91,SSW,208,2.7,4.9,28,0.00,,---,0.00,VWS V14.01,2013-06-26 03:08:00,
2013-06-25 21:09:00,63.7,30.0,29.91,SSW,212,8.3,8.3,28,0.00,,---,0.00,VWS V14.01,2013-06-26 03:09:00,
2013-06-25 21:10:00,63.7,30.0,29.91,SSW,203,5.4,8.3,28,0.00,,---,0.00,VWS V14.01,2013-06-26 03:10:00,
2013-06-25 21:12:00,63.7,30.0,29.91,SSW,193,4.0,8.3,28,0.00,,---,0.00,VWS V14.01,2013-06-26 03:12:00,
2013-06-25 21:13:00,63.9,30.1,29.91,SSW,195,5.4,8.3,28,0.00,,---,0.00,VWS V14.01,2013-06-26 03:13:00,
2013-06-25 21:15:00,63.9,30.1,29.91,SSW,207,3.1,8.3,28,0.00,,---,0.00,VWS V14.01,2013-06-26 03:15:00,
2013-06-25 21:18:00,63.7,32.5,29.91,SSW,200,2.2,3.6,31,0.00,,---,0.00,VWS V14.01,2013-06-26 03:18:00,
2013-06-25 21:20:00,63.3,32.2,29.91,SSW,206,4.0,4.0,31,0.00,,---,0.00,VWS V14.01,2013-06-26 03:20:00,
2013-06-25 21:21:00,63.1,33.6,29.91,SSW,204,2.7,4.0,33,0.00,,---,0.00,VWS V14.01,2013-06-26 03:21:00,
2013-06-25 21:23:00,63.0,33.4,29.91,SSW,204,2.2,4.0,33,0.00,,---,0.00,VWS V14.01,2013-06-26 03:23:00,
2013-06-25 21:25:00,62.8,33.3,29.91,SSW,202,2.7,4.0,33,0.00,,---,0.00,VWS V14.01,2013-06-26 03:25:00,
2013-06-25 21:26:00,62.6,33.1,29.91,SSW,201,2.7,4.0,33,0.00,,---,0.00,VWS V14.01,2013-06-26 03:26:00,
2013-06-25 21:28:00,62.4,33.7,29.91,SW,234,2.2,4.0,34,0.00,,---,0.00,VWS V14.01,2013-06-26 03:28:00,
2013-06-25 21:30:00,62.4,34.4,29.91,WSW,243,3.1,3.6,35,0.00,,---,0.00,VWS V14.01,2013-06-26 03:30:00,
2013-06-25 21:31:00,62.2,34.3,29.91,WSW,250,2.2,3.6,35,0.00,,---,0.00,VWS V14.01,2013-06-26 03:31:00,
2013-06-25 21:33:00,62.2,34.3,29.91,WSW,250,2.2,3.6,35,0.00,,---,0.00,VWS V14.01,2013-06-26 03:33:00,
2013-06-25 21:34:00,61.9,34.7,29.91,WSW,250,2.2,3.6,36,0.00,,---,0.00,VWS V14.01,2013-06-26 03:34:00,
2013-06-25 21:35:00,61.9,34.7,29.91,WSW,250,0.0,3.6,36,0.00,,---,0.00,VWS V14.01,2013-06-26 03:35:00,
2013-06-25 21:36:00,61.9,34.0,29.91,WSW,250,0.0,3.6,35,0.00,,---,0.00,VWS V14.01,2013-06-26 03:36:00,
2013-06-25 21:38:00,61.7,33.8,29.91,WSW,250,0.0,3.6,35,0.00,,---,0.00,VWS V14.01,2013-06-26 03:38:00,
2013-06-25 21:39:00,61.7,33.8,29.91,WSW,250,0.0,3.6,35,0.00,,---,0.00,VWS V14.01,2013-06-26 03:39:00,
2013-06-25 21:40:00,61.5,34.3,29.91,WSW,250,0.0,3.6,36,0.00,,---,0.00,VWS V14.01,2013-06-26 03:40:00,
2013-06-25 21:41:00,61.3,34.2,29.91,WSW,250,0.0,3.6,36,0.00,,---,0.00,VWS V14.01,2013-06-26 03:41:00,
2013-06-25 21:43:00,61.3,36.2,29.91,WSW,250,0.0,3.6,39,0.00,,---,0.00,VWS V14.01,2013-06-26 03:43:00,
2013-06-25 21:44:00,61.3,36.2,29.91,WSW,250,0.0,3.6,39,0.00,,---,0.00,VWS V14.01,2013-06-26 03:44:00,
2013-06-25 21:45:00,61.2,34.7,29.91,WSW,250,0.0,0.0,37,0.00,,---,0.00,VWS V14.01,2013-06-26 03:45:00,
2013-06-25 21:46:00,61.0,34.5,29.91,WSW,250,2.2,2.2,37,0.00,,---,0.00,VWS V14.01,2013-06-26 03:46:00,
2013-06-25 21:48:00,61.0,35.2,29.91,West,264,2.7,3.1,38,0.00,,---,0.00,VWS V14.01,2013-06-26 03:48:00,
2013-06-25 21:49:00,61.0,33.9,29.91,West,269,2.7,4.5,36,0.00,,---,0.00,VWS V14.01,2013-06-26 03:49:00,
2013-06-25 21:50:00,61.0,33.9,29.91,West,278,2.7,4.5,36,0.00,,---,0.00,VWS V14.01,2013-06-26 03:50:00,
2013-06-25 21:52:00,61.0,33.9,29.91,West,278,2.7,4.5,36,0.00,,---,0.00,VWS V14.01,2013-06-26 03:52:00,
2013-06-25 21:54:00,61.0,33.9,29.91,West,278,3.1,4.5,36,0.00,,---,0.00,VWS V14.01,2013-06-26 03:54:00,
2013-06-25 21:55:00,61.0,34.5,29.91,West,278,3.1,4.5,37,0.00,,---,0.00,VWS V14.01,2013-06-26 03:55:00,
2013-06-25 21:57:00,61.0,34.5,29.91,West,278,0.0,4.5,37,0.00,,---,0.00,VWS V14.01,2013-06-26 03:57:00,
2013-06-25 21:59:00,60.8,34.4,29.91,SW,234,2.7,4.5,37,0.00,,---,0.00,VWS V14.01,2013-06-26 03:59:00,
2013-06-25 22:01:00,60.6,34.2,29.91,SSW,211,3.1,3.1,37,0.00,,---,0.00,VWS V14.01,2013-06-26 04:01:00,
2013-06-25 22:06:00,60.4,34.7,29.91,West,276,2.7,4.0,38,0.00,,---,0.00,VWS V14.01,2013-06-26 04:06:00,
2013-06-25 22:11:00,60.3,35.9,29.91,West,266,4.0,4.0,40,0.00,,---,0.00,VWS V14.01,2013-06-26 04:11:00,
2013-06-25 22:12:00,60.1,35.1,29.91,West,276,2.2,4.0,39,0.00,,---,0.00,VWS V14.01,2013-06-26 04:12:00,
2013-06-25 22:16:00,59.9,36.2,29.91,West,270,2.7,4.0,41,0.00,,---,0.00,VWS V14.01,2013-06-26 04:16:00,
2013-06-25 22:17:00,59.9,36.2,29.91,West,269,3.1,4.0,41,0.00,,---,0.00,VWS V14.01,2013-06-26 04:17:00,
2013-06-25 22:21:00,59.7,36.6,29.91,West,269,2.7,4.0,42,0.00,,---,0.00,VWS V14.01,2013-06-26 04:21:00,
2013-06-25 22:22:00,59.5,36.5,29.91,West,269,0.0,4.0,42,0.00,,---,0.00,VWS V14.01,2013-06-26 04:22:00,
2013-06-25 22:26:00,59.4,36.3,29.91,West,277,2.2,4.0,42,0.00,,---,0.00,VWS V14.01,2013-06-26 04:26:00,
2013-06-25 22:27:00,59.4,36.3,29.91,West,277,2.7,4.0,42,0.00,,---,0.00,VWS V14.01,2013-06-26 04:27:00,
2013-06-25 22:28:00,59.4,36.3,29.91,West,277,4.0,4.0,42,0.00,,---,0.00,VWS V14.01,2013-06-26 04:28:00,
2013-06-25 22:32:00,59.2,36.7,29.91,West,275,2.7,2.7,43,0.00,,---,0.00,VWS V14.01,2013-06-26 04:32:00,
2013-06-25 22:33:00,59.2,36.7,29.94,West,275,2.2,2.7,43,0.00,,---,0.00,VWS V14.01,2013-06-26 04:33:00,
2013-06-25 22:37:00,59.0,36.6,29.94,West,278,2.2,2.7,43,0.00,,---,0.00,VWS V14.01,2013-06-26 04:37:00,
2013-06-25 22:38:00,59.0,37.1,29.94,West,278,2.7,3.1,44,0.00,,---,0.00,VWS V14.01,2013-06-26 04:38:00,
2013-06-25 22:42:00,58.8,37.5,29.94,West,278,0.0,3.1,45,0.00,,---,0.00,VWS V14.01,2013-06-26 04:42:00,
2013-06-25 22:43:00,58.6,37.4,29.94,West,278,2.7,3.1,45,0.00,,---,0.00,VWS V14.01,2013-06-26 04:43:00,
2013-06-25 22:47:00,58.6,37.4,29.94,West,278,2.2,2.2,45,0.00,,---,0.00,VWS V14.01,2013-06-26 04:47:00,
2013-06-25 22:48:00,58.6,37.4,29.94,West,278,2.7,2.7,45,0.00,,---,0.00,VWS V14.01,2013-06-26 04:48:00,
2013-06-25 22:52:00,58.5,37.2,29.94,SW,214,2.2,2.7,45,0.00,,---,0.00,VWS V14.01,2013-06-26 04:52:00,
2013-06-25 22:53:00,58.5,37.2,29.94,SW,214,0.0,2.7,45,0.00,,---,0.00,VWS V14.01,2013-06-26 04:53:00,
2013-06-25 22:54:00,58.5,37.2,29.94,SW,214,0.0,2.7,45,0.00,,---,0.00,VWS V14.01,2013-06-26 04:54:00,
2013-06-25 22:57:00,58.3,37.0,29.94,SW,214,2.2,2.7,45,0.00,,---,0.00,VWS V14.01,2013-06-26 04:57:00,
2013-06-25 22:58:00,58.3,37.6,29.94,SW,214,2.7,2.7,46,0.00,,---,0.00,VWS V14.01,2013-06-26 04:58:00,
2013-06-25 22:59:00,58.1,37.5,29.94,SW,214,2.2,2.7,46,0.00,,---,0.00,VWS V14.01,2013-06-26 04:59:00,
2013-06-25 23:00:00,58.1,37.5,29.94,SW,214,2.7,2.7,46,0.00,,---,0.00,VWS V14.01,2013-06-26 05:00:00,
2013-06-25 23:02:00,57.9,37.3,29.94,SW,214,0.0,2.2,46,0.00,,---,0.00,VWS V14.01,2013-06-26 05:02:00,
2013-06-25 23:03:00,57.9,37.3,29.94,SW,214,0.0,2.2,46,0.00,,---,0.00,VWS V14.01,2013-06-26 05:03:00,
2013-06-25 23:04:00,57.9,37.3,29.94,SW,214,0.0,2.2,46,0.00,,---,0.00,VWS V14.01,2013-06-26 05:04:00,
2013-06-25 23:05:00,57.9,37.3,29.94,SW,214,0.0,2.2,46,0.00,,---,0.00,VWS V14.01,2013-06-26 05:05:00,
2013-06-25 23:07:00,57.9,37.3,29.94,SW,214,0.0,2.2,46,0.00,,---,0.00,VWS V14.01,2013-06-26 05:07:00,
2013-06-25 23:08:00,57.7,37.1,29.94,SW,214,0.0,2.2,46,0.00,,---,0.00,VWS V14.01,2013-06-26 05:08:00,
2013-06-25 23:09:00,57.7,37.1,29.94,SW,214,0.0,2.2,46,0.00,,---,0.00,VWS V14.01,2013-06-26 05:09:00,
2013-06-25 23:10:00,57.9,37.8,29.94,SW,214,2.7,2.7,47,0.00,,---,0.00,VWS V14.01,2013-06-26 05:10:00,
2013-06-25 23:13:00,57.7,37.7,29.94,SW,214,0.0,2.7,47,0.00,,---,0.00,VWS V14.01,2013-06-26 05:13:00,
2013-06-25 23:14:00,57.7,37.7,29.94,SW,214,0.0,2.7,47,0.00,,---,0.00,VWS V14.01,2013-06-26 05:14:00,
2013-06-25 23:15:00,57.6,37.5,29.94,SW,214,0.0,2.7,47,0.00,,---,0.00,VWS V14.01,2013-06-26 05:15:00,
2013-06-25 23:18:00,57.6,37.5,29.91,SW,214,0.0,0.0,47,0.00,,---,0.00,VWS V14.01,2013-06-26 05:18:00,
2013-06-25 23:19:00,57.4,37.3,29.91,SW,214,0.0,0.0,47,0.00,,---,0.00,VWS V14.01,2013-06-26 05:19:00,
2013-06-25 23:20:00,57.4,37.3,29.91,SW,214,0.0,0.0,47,0.00,,---,0.00,VWS V14.01,2013-06-26 05:20:00,
2013-06-25 23:23:00,57.4,36.8,29.91,SW,214,0.0,0.0,46,0.00,,---,0.00,VWS V14.01,2013-06-26 05:23:00,
2013-06-25 23:24:00,57.4,36.8,29.91,SW,214,0.0,0.0,46,0.00,,---,0.00,VWS V14.01,2013-06-26 05:24:00,
2013-06-25 23:25:00,57.6,37.0,29.91,SW,214,0.0,0.0,46,0.00,,---,0.00,VWS V14.01,2013-06-26 05:25:00,
2013-06-25 23:28:00,57.6,37.0,29.91,SW,214,0.0,0.0,46,0.00,,---,0.00,VWS V14.01,2013-06-26 05:28:00,
2013-06-25 23:29:00,57.6,37.5,29.91,SW,214,0.0,0.0,47,0.00,,---,0.00,VWS V14.01,2013-06-26 05:29:00,
2013-06-25 23:30:00,57.6,37.5,29.91,SW,214,0.0,0.0,47,0.00,,---,0.00,VWS V14.01,2013-06-26 05:30:00,
2013-06-25 23:33:00,57.6,37.5,29.91,SW,214,0.0,0.0,47,0.00,,---,0.00,VWS V14.01,2013-06-26 05:33:00,
2013-06-25 23:34:00,57.4,37.3,29.91,SW,214,0.0,0.0,47,0.00,,---,0.00,VWS V14.01,2013-06-26 05:34:00,
2013-06-25 23:35:00,57.4,37.3,29.91,SW,214,0.0,0.0,47,0.00,,---,0.00,VWS V14.01,2013-06-26 05:35:00,
2013-06-25 23:38:00,57.4,36.8,29.91,SW,214,0.0,2.2,46,0.00,,---,0.00,VWS V14.01,2013-06-26 05:38:00,
2013-06-25 23:39:00,57.4,36.8,29.91,SW,214,0.0,2.2,46,0.00,,---,0.00,VWS V14.01,2013-06-26 05:39:00,
2013-06-25 23:40:00,57.6,37.0,29.91,SW,214,0.0,2.2,46,0.00,,---,0.00,VWS V14.01,2013-06-26 05:40:00,
2013-06-25 23:41:00,57.6,37.0,29.91,SW,214,0.0,2.2,46,0.00,,---,0.00,VWS V14.01,2013-06-26 05:41:00,
2013-06-25 23:42:00,57.6,37.0,29.91,SW,214,0.0,2.2,46,0.00,,---,0.00,VWS V14.01,2013-06-26 05:42:00,
2013-06-25 23:43:00,57.6,36.4,29.91,SW,214,0.0,2.2,45,0.00,,---,0.00,VWS V14.01,2013-06-26 05:43:00,
2013-06-25 23:45:00,57.6,36.4,29.91,SW,214,2.2,2.2,45,0.00,,---,0.00,VWS V14.01,2013-06-26 05:45:00,
2013-06-25 23:46:00,57.6,37.0,29.91,SW,214,2.2,2.7,46,0.00,,---,0.00,VWS V14.01,2013-06-26 05:46:00,
2013-06-25 23:47:00,57.6,37.0,29.91,SW,214,0.0,2.7,46,0.00,,---,0.00,VWS V14.01,2013-06-26 05:47:00,
2013-06-25 23:48:00,57.6,37.0,29.94,SW,214,0.0,2.7,46,0.00,,---,0.00,VWS V14.01,2013-06-26 05:48:00,
2013-06-25 23:50:00,57.4,37.3,29.94,SW,214,0.0,2.7,47,0.00,,---,0.00,VWS V14.01,2013-06-26 05:50:00,
2013-06-25 23:51:00,57.4,36.2,29.94,SW,214,2.7,2.7,45,0.00,,---,0.00,VWS V14.01,2013-06-26 05:51:00,
2013-06-25 23:52:00,57.4,36.2,29.94,SW,214,2.2,2.7,45,0.00,,---,0.00,VWS V14.01,2013-06-26 05:52:00,
2013-06-25 23:53:00,57.6,36.4,29.94,SW,214,0.0,2.7,45,0.00,,---,0.00,VWS V14.01,2013-06-26 05:53:00,
2013-06-25 23:55:00,57.6,36.4,29.94,SW,214,0.0,2.7,45,0.00,,---,0.00,VWS V14.01,2013-06-26 05:55:00,
2013-06-25 23:56:00,57.6,36.4,29.94,SW,214,0.0,2.7,45,0.00,,---,0.00,VWS V14.01,2013-06-26 05:56:00,
2013-06-25 23:57:00,57.7,36.6,29.94,SW,214,0.0,2.7,45,0.00,,---,0.00,VWS V14.01,2013-06-26 05:57:00,
2013-06-25 23:58:00,57.7,36.0,29.94,SW,214,0.0,2.7,44,0.00,,---,0.00,VWS V14.01,2013-06-26 05:58:00,